| time (UTC) | temp C | wind direction | speed KPH | gust KPH | rain 1hr cm | rain 24hr cm | rain mn cm | humidity % | barometer mb |
| 20260506004628 | 16 | 225 | 3.2 | 4.8 | 0.00 | 0.00 | 0.00 | 59 | 1005.5 |
| 20260506004531 | 16 | 224 | 3.2 | 4.8 | 0.00 | 0.00 | 0.00 | 59 | 1005.3 |
| 20260506004522 | 16 | 213 | 3.2 | 4.8 | 0.00 | 0.00 | 0.00 | 59 | 1005.3 |
| 20260506004417 | 16 | 204 | 0.0 | 6.4 | 0.00 | 0.00 | 0.00 | 59 | 1005.4 |
| 20260506004317 | 16 | 201 | 0.0 | 6.4 | 0.00 | 0.00 | 0.00 | 59 | 1005.3 |
| 20260506004217 | 16 | 200 | 0.0 | 6.4 | 0.00 | 0.00 | 0.00 | 59 | 1005.3 |
| 20260506004117 | 16 | 210 | 0.0 | 6.4 | 0.00 | 0.00 | 0.00 | 59 | 1005.3 |
| 20260506004025 | 16 | 207 | 1.6 | 6.4 | 0.00 | 0.00 | 0.00 | 59 | 1005.2 |
| 20260506004004 | 16 | 225 | 1.6 | 6.4 | 0.00 | 0.00 | 0.00 | 59 | 1005.2 |
| 20260506003903 | 16 | 204 | 0.0 | 6.4 | 0.00 | 0.00 | 0.00 | 58 | 1005.2 |
| 20260506003803 | 16 | 206 | 3.2 | 6.4 | 0.00 | 0.00 | 0.00 | 58 | 1005.5 |
| 20260506003705 | 16 | 186 | 0.0 | 9.7 | 0.00 | 0.00 | 0.00 | 58 | 1005.4 |
| 20260506003603 | 16 | 217 | 1.6 | 9.7 | 0.00 | 0.00 | 0.00 | 58 | 1005.5 |
| 20260506003524 | 17 | 200 | 0.0 | 9.7 | 0.00 | 0.00 | 0.00 | 58 | 1005.4 |
| 20260506003517 | 17 | 225 | 4.8 | 12.9 | 0.00 | 0.00 | 0.00 | 57 | 1005.1 |
| 20260506003512 | 17 | 218 | 3.2 | 9.7 | 0.00 | 0.00 | 0.00 | 58 | 1005.4 |
| 20260506003455 | 17 | 211 | 1.6 | 9.7 | 0.00 | 0.00 | 0.00 | 58 | 1005.4 |
| 20260506003440 | 17 | 207 | 0.0 | 9.7 | 0.00 | 0.00 | 0.00 | 58 | 1005.3 |
| 20260506003214 | 17 | 223 | 3.2 | 9.7 | 0.00 | 0.00 | 0.00 | 58 | 1005.1 |
| 20260506003157 | 17 | 209 | 0.0 | 12.9 | 0.00 | 0.00 | 0.00 | 58 | 1005.5 |
| 20260506003142 | 17 | 209 | 3.2 | 12.9 | 0.00 | 0.00 | 0.00 | 58 | 1005.2 |
| 20260506003135 | 17 | 206 | 1.6 | 12.9 | 0.00 | 0.00 | 0.00 | 58 | 1005.2 |
| 20260506003119 | 17 | 199 | 1.6 | 12.9 | 0.00 | 0.00 | 0.00 | 57 | 1005.4 |
| 20260506003103 | 17 | 199 | 3.2 | 12.9 | 0.00 | 0.00 | 0.00 | 57 | 1005.1 |
| 20260506002828 | 17 | 226 | 4.8 | 12.9 | 0.00 | 0.00 | 0.00 | 57 | 1005.4 |
| 20260506002559 | 17 | 205 | 1.6 | 12.9 | 0.00 | 0.00 | 0.00 | 57 | 1005.1 |
| 20260506002140 | 17 | 236 | 8.0 | 11.3 | 0.00 | 0.00 | 0.00 | 56 | 1005.2 |
| 20260506002039 | 17 | 194 | 1.6 | 11.3 | 0.00 | 0.00 | 0.00 | 57 | 1005.4 |
| 20260506002011 | 17 | 193 | 1.6 | 6.4 | 0.00 | 0.00 | 0.00 | 57 | 1005.3 |
| 20260506001930 | 17 | 199 | 0.0 | 6.4 | 0.00 | 0.00 | 0.00 | 56 | 1005.3 |
| 20260506001849 | 17 | 210 | 0.0 | 6.4 | 0.00 | 0.00 | 0.00 | 56 | 1005.2 |
| 20260506001832 | 17 | 211 | 3.2 | 6.4 | 0.00 | 0.00 | 0.00 | 56 | 1005.1 |
| 20260506001817 | 17 | 227 | 3.2 | 6.4 | 0.00 | 0.00 | 0.00 | 56 | 1005.4 |
| 20260506001801 | 17 | 228 | 1.6 | 6.4 | 0.00 | 0.00 | 0.00 | 56 | 1005.4 |
| 20260506001748 | 17 | 194 | 0.0 | 6.4 | 0.00 | 0.00 | 0.00 | 56 | 1005.3 |
| 20260506001740 | 17 | 177 | 0.0 | 6.4 | 0.00 | 0.00 | 0.00 | 56 | 1005.4 |
| 20260506001502 | 17 | 207 | 1.6 | 11.3 | 0.00 | 0.00 | 0.00 | 56 | 1005.5 |
| 20260506000954 | 17 | 210 | 1.6 | 11.3 | 0.00 | 0.00 | 0.00 | 56 | 1005.1 |
| 20260506000922 | 17 | 224 | 0.0 | 11.3 | 0.00 | 0.00 | 0.00 | 56 | 1005.2 |
| 20260506000851 | 17 | 220 | 3.2 | 11.3 | 0.00 | 0.00 | 0.00 | 56 | 1005.3 |
| 20260506000834 | 17 | 221 | 1.6 | 11.3 | 0.00 | 0.00 | 0.00 | 56 | 1005.3 |
| 20260506000817 | 17 | 194 | 0.0 | 11.3 | 0.00 | 0.00 | 0.00 | 56 | 1005.3 |
| 20260506000802 | 17 | 194 | 0.0 | 11.3 | 0.00 | 0.00 | 0.00 | 55 | 1005.1 |
| 20260506000749 | 17 | 204 | 3.2 | 11.3 | 0.00 | 0.00 | 0.00 | 55 | 1005.1 |
| 20260506000213 | 17 | 214 | 6.4 | 9.7 | 0.00 | 0.00 | 0.00 | 55 | 1005.2 |
| 20260506000134 | 17 | 172 | 0.0 | 14.5 | 0.00 | 0.00 | 0.00 | 55 | 1005.4 |
| 20260506000117 | 17 | 205 | 3.2 | 17.7 | 0.00 | 0.00 | 0.00 | 55 | 1005.4 |
| 20260506000104 | 17 | 202 | 0.0 | 17.7 | 0.00 | 0.00 | 0.00 | 55 | 1005.4 |
| 20260506000045 | 17 | 226 | 1.6 | 17.7 | 0.00 | 0.00 | 0.00 | 55 | 1005.4 |
| 20260506000029 | 17 | 211 | 6.4 | 17.7 | 0.00 | 0.00 | 0.00 | 55 | 1005.2 |
| 20260506000014 | 17 | 204 | 3.2 | 17.7 | 0.00 | 0.00 | 0.00 | 55 | 1005.4 |
| 20260505235520 | 17 | 225 | 3.2 | 17.7 | 0.00 | 0.00 | 0.00 | 55 | 1005.3 |
| 20260505235511 | 17 | 203 | 0.0 | 17.7 | 0.00 | 0.00 | 0.00 | 55 | 1005.2 |
| 20260505235455 | 17 | 204 | 3.2 | 17.7 | 0.00 | 0.00 | 0.00 | 55 | 1005.5 |
| 20260505235437 | 18 | 221 | 4.8 | 17.7 | 0.00 | 0.00 | 0.00 | 55 | 1005.4 |
| 20260505235421 | 18 | 222 | 3.2 | 14.5 | 0.00 | 0.00 | 0.00 | 55 | 1005.2 |
| 20260505235405 | 18 | 153 | 0.0 | 14.5 | 0.00 | 0.00 | 0.00 | 55 | 1005.6 |
| 20260505235352 | 18 | 213 | 6.4 | 14.5 | 0.00 | 0.00 | 0.00 | 55 | 1005.4 |
| 20260505234557 | 18 | 233 | 3.2 | 12.9 | 0.00 | 0.00 | 0.00 | 55 | 1005.4 |
| 20260505234457 | 18 | 219 | 1.6 | 12.9 | 0.00 | 0.00 | 0.00 | 55 | 1005.4 |
| 20260505234429 | 18 | 214 | 3.2 | 12.9 | 0.00 | 0.00 | 0.00 | 55 | 1005.3 |
| 20260505234359 | 18 | 215 | 3.2 | 12.9 | 0.00 | 0.00 | 0.00 | 55 | 1005.3 |
| 20260505234258 | 18 | 206 | 3.2 | 17.7 | 0.00 | 0.00 | 0.00 | 55 | 1005.3 |
| 20260505234157 | 18 | 210 | 6.4 | 17.7 | 0.00 | 0.00 | 0.00 | 54 | 1005.5 |
| 20260505234044 | 18 | 216 | 3.2 | 17.7 | 0.00 | 0.00 | 0.00 | 54 | 1005.6 |
| 20260505233945 | 18 | 235 | 6.4 | 17.7 | 0.00 | 0.00 | 0.00 | 54 | 1005.5 |
| 20260505233931 | 18 | 227 | 6.4 | 17.7 | 0.00 | 0.00 | 0.00 | 54 | 1005.4 |
| 20260505233845 | 18 | 232 | 6.4 | 17.7 | 0.00 | 0.00 | 0.00 | 54 | 1005.4 |
| 20260505233745 | 18 | 234 | 6.4 | 17.7 | 0.00 | 0.00 | 0.00 | 54 | 1005.5 |
| 20260505233645 | 18 | 235 | 6.4 | 17.7 | 0.00 | 0.00 | 0.00 | 54 | 1005.6 |
| 20260505233545 | 18 | 218 | 1.6 | 17.7 | 0.00 | 0.00 | 0.00 | 54 | 1005.6 |
| 20260505233422 | 18 | 207 | 9.7 | 17.7 | 0.00 | 0.00 | 0.00 | 54 | 1005.5 |
| 20260505233341 | 18 | 230 | 8.0 | 17.7 | 0.00 | 0.00 | 0.00 | 54 | 1005.5 |
| 20260505233241 | 18 | 237 | 9.7 | 17.7 | 0.00 | 0.00 | 0.00 | 54 | 1005.4 |
| 20260505233140 | 18 | 215 | 3.2 | 17.7 | 0.00 | 0.00 | 0.00 | 54 | 1005.5 |
| 20260505233038 | 18 | 220 | 14.5 | 17.7 | 0.00 | 0.00 | 0.00 | 54 | 1005.7 |
| 20260505232936 | 18 | 192 | 0.0 | 16.1 | 0.00 | 0.00 | 0.00 | 54 | 1005.6 |
| 20260505232920 | 18 | 188 | 3.2 | 16.1 | 0.00 | 0.00 | 0.00 | 54 | 1005.6 |
| 20260505232834 | 18 | 233 | 6.4 | 16.1 | 0.00 | 0.00 | 0.00 | 54 | 1005.5 |
| 20260505232800 | 18 | 217 | 12.9 | 27.4 | 0.00 | 0.00 | 0.00 | 54 | 1005.6 |
| 20260505232752 | 18 | 233 | 4.8 | 16.1 | 0.00 | 0.00 | 0.00 | 54 | 1005.7 |
| 20260505232736 | 18 | 208 | 6.4 | 16.1 | 0.00 | 0.00 | 0.00 | 54 | 1005.7 |
| 20260505232719 | 18 | 184 | 3.2 | 16.1 | 0.00 | 0.00 | 0.00 | 54 | 1005.7 |
| 20260505232657 | 18 | 94 | 3.2 | 16.1 | 0.00 | 0.00 | 0.00 | 54 | 1005.7 |
| 20260505232640 | 18 | 181 | 3.2 | 16.1 | 0.00 | 0.00 | 0.00 | 54 | 1005.7 |
| 20260505232623 | 18 | 200 | 1.6 | 27.4 | 0.00 | 0.00 | 0.00 | 54 | 1005.6 |
| 20260505232608 | 18 | 186 | 1.6 | 27.4 | 0.00 | 0.00 | 0.00 | 54 | 1005.7 |
| 20260505231816 | 18 | 219 | 1.6 | 27.4 | 0.00 | 0.00 | 0.00 | 55 | 1005.7 |
| 20260505231716 | 18 | 219 | 4.8 | 27.4 | 0.00 | 0.00 | 0.00 | 55 | 1005.6 |
| 20260505231615 | 18 | 229 | 0.0 | 27.4 | 0.00 | 0.00 | 0.00 | 55 | 1006.0 |
| 20260505231515 | 18 | 213 | 0.0 | 27.4 | 0.00 | 0.00 | 0.00 | 55 | 1005.7 |
| 20260505231415 | 18 | 200 | 3.2 | 27.4 | 0.00 | 0.00 | 0.00 | 54 | 1005.7 |
| 20260505231316 | 18 | 254 | 22.5 | 27.4 | 0.00 | 0.00 | 0.00 | 54 | 1005.9 |
| 20260505231241 | 18 | 220 | 4.8 | 14.5 | 0.00 | 0.00 | 0.00 | 54 | 1005.6 |
| 20260505231224 | 18 | 196 | 0.0 | 14.5 | 0.00 | 0.00 | 0.00 | 55 | 1005.5 |
| 20260505230904 | 18 | 229 | 9.7 | 22.5 | 0.00 | 0.00 | 0.00 | 54 | 1005.6 |
| 20260505230804 | 18 | 201 | 3.2 | 22.5 | 0.00 | 0.00 | 0.00 | 54 | 1005.7 |
| 20260505230704 | 18 | 196 | 3.2 | 22.5 | 0.00 | 0.00 | 0.00 | 54 | 1005.8 |
| 20260505230603 | 18 | 179 | 3.2 | 22.5 | 0.00 | 0.00 | 0.00 | 54 | 1005.8 |
| 20260505230504 | 18 | 214 | 1.6 | 22.5 | 0.00 | 0.00 | 0.00 | 54 | 1005.6 |
| 20260505230406 | 18 | 156 | 1.6 | 22.5 | 0.00 | 0.00 | 0.00 | 54 | 1005.6 |
| 20260505230336 | 18 | 199 | 1.6 | 22.5 | 0.00 | 0.00 | 0.00 | 54 | 1005.6 |
| 20260505230016 | 18 | 219 | 16.1 | 22.5 | 0.00 | 0.00 | 0.00 | 53 | 1005.6 |
| 20260505225916 | 18 | 227 | 3.2 | 22.5 | 0.00 | 0.00 | 0.00 | 54 | 1005.7 |
| 20260505225816 | 18 | 189 | 6.4 | 22.5 | 0.00 | 0.00 | 0.00 | 54 | 1005.7 |
| 20260505225717 | 18 | 200 | 6.4 | 22.5 | 0.00 | 0.00 | 0.00 | 54 | 1005.8 |
| 20260505225617 | 18 | 213 | 9.7 | 22.5 | 0.00 | 0.00 | 0.00 | 55 | 1005.7 |
| 20260505225538 | 18 | 196 | 4.8 | 12.9 | 0.00 | 0.00 | 0.00 | 56 | 1006.0 |
| 20260505225531 | 18 | 232 | 6.4 | 11.3 | 0.00 | 0.00 | 0.00 | 56 | 1005.8 |
| 20260505225525 | 18 | 213 | 4.8 | 22.5 | 0.00 | 0.00 | 0.00 | 55 | 1005.9 |
| 20260505225510 | 18 | 229 | 4.8 | 22.5 | 0.00 | 0.00 | 0.00 | 56 | 1005.8 |
| 20260505225448 | 18 | 154 | 1.6 | 22.5 | 0.00 | 0.00 | 0.00 | 55 | 1005.7 |
| 20260505225431 | 18 | 201 | 4.8 | 22.5 | 0.00 | 0.00 | 0.00 | 55 | 1005.8 |
| 20260505225154 | 18 | 148 | 4.8 | 20.9 | 0.00 | 0.00 | 0.00 | 55 | 1005.8 |
| 20260505224929 | 18 | 239 | 9.7 | 17.7 | 0.00 | 0.00 | 0.00 | 55 | 1005.5 |
| 20260505224913 | 18 | 192 | 4.8 | 17.7 | 0.00 | 0.00 | 0.00 | 56 | 1005.7 |
| 20260505224907 | 18 | 192 | 4.8 | 17.7 | 0.00 | 0.00 | 0.00 | 56 | 1005.7 |
| 20260505224850 | 18 | 204 | 3.2 | 17.7 | 0.00 | 0.00 | 0.00 | 56 | 1005.8 |
| 20260505224835 | 18 | 194 | 6.4 | 17.7 | 0.00 | 0.00 | 0.00 | 56 | 1005.7 |
| 20260505224819 | 18 | 213 | 8.0 | 12.9 | 0.00 | 0.00 | 0.00 | 56 | 1005.9 |
| 20260505224803 | 18 | 240 | 8.0 | 11.3 | 0.00 | 0.00 | 0.00 | 56 | 1005.8 |
| 20260505224536 | 18 | 208 | 0.0 | 11.3 | 0.00 | 0.00 | 0.00 | 56 | 1005.8 |
| 20260505224037 | 18 | 209 | 3.2 | 11.3 | 0.00 | 0.00 | 0.00 | 56 | 1006.2 |
| 20260505224022 | 18 | 204 | 1.6 | 11.3 | 0.00 | 0.00 | 0.00 | 56 | 1005.9 |
| 20260505223748 | 18 | 202 | 0.0 | 12.9 | 0.00 | 0.00 | 0.00 | 56 | 1006.0 |
| 20260505223742 | 18 | 194 | 3.2 | 12.9 | 0.00 | 0.00 | 0.00 | 56 | 1006.0 |
| 20260505223727 | 18 | 192 | 1.6 | 12.9 | 0.00 | 0.00 | 0.00 | 56 | 1006.0 |
| 20260505223711 | 18 | 218 | 6.4 | 12.9 | 0.00 | 0.00 | 0.00 | 56 | 1005.9 |
| 20260505223656 | 18 | 207 | 0.0 | 12.9 | 0.00 | 0.00 | 0.00 | 56 | 1005.9 |
| 20260505223640 | 18 | 240 | 6.4 | 12.9 | 0.00 | 0.00 | 0.00 | 56 | 1006.0 |
| 20260505223413 | 18 | 208 | 3.2 | 12.9 | 0.00 | 0.00 | 0.00 | 56 | 1005.8 |
| 20260505223146 | 18 | 186 | 1.6 | 12.9 | 0.00 | 0.00 | 0.00 | 55 | 1006.0 |
| 20260505223130 | 18 | 214 | 0.0 | 12.9 | 0.00 | 0.00 | 0.00 | 56 | 1006.0 |
| 20260505223115 | 18 | 190 | 0.0 | 12.9 | 0.00 | 0.00 | 0.00 | 56 | 1005.9 |
| 20260505222841 | 18 | 212 | 6.4 | 6.4 | 0.00 | 0.00 | 0.00 | 56 | 1005.9 |
| 20260505222833 | 18 | 220 | 3.2 | 6.4 | 0.00 | 0.00 | 0.00 | 56 | 1005.7 |
| 20260505222817 | 18 | 200 | 0.0 | 9.7 | 0.00 | 0.00 | 0.00 | 56 | 1005.7 |
| 20260505222554 | 18 | 206 | 3.2 | 9.7 | 0.00 | 0.00 | 0.00 | 56 | 1005.8 |
| 20260505222537 | 18 | 227 | 6.4 | 12.9 | 0.00 | 0.00 | 0.00 | 56 | 1005.8 |
| 20260505222521 | 18 | 213 | 3.2 | 12.9 | 0.00 | 0.00 | 0.00 | 56 | 1006.0 |
| 20260505222255 | 18 | 218 | 3.2 | 12.9 | 0.00 | 0.00 | 0.00 | 56 | 1005.8 |
| 20260505222236 | 18 | 243 | 3.2 | 12.9 | 0.00 | 0.00 | 0.00 | 56 | 1005.9 |
| 20260505222221 | 18 | 245 | 4.8 | 12.9 | 0.00 | 0.00 | 0.00 | 56 | 1006.0 |
| 20260505221946 | 18 | 196 | 0.0 | 12.9 | 0.00 | 0.00 | 0.00 | 56 | 1005.9 |
| 20260505221933 | 18 | 209 | 1.6 | 12.9 | 0.00 | 0.00 | 0.00 | 55 | 1005.9 |
| 20260505221616 | 18 | 229 | 4.8 | 12.9 | 0.00 | 0.00 | 0.00 | 55 | 1005.8 |
| 20260505221547 | 18 | 198 | 0.0 | 12.9 | 0.00 | 0.00 | 0.00 | 56 | 1006.2 |
| 20260505221530 | 18 | 201 | 0.0 | 12.9 | 0.00 | 0.00 | 0.00 | 55 | 1006.2 |
| 20260505221514 | 18 | 196 | 3.2 | 12.9 | 0.00 | 0.00 | 0.00 | 55 | 1005.8 |
| 20260505221501 | 18 | 232 | 4.8 | 14.5 | 0.00 | 0.00 | 0.00 | 55 | 1005.8 |
| 20260505221452 | 18 | 214 | 4.8 | 14.5 | 0.00 | 0.00 | 0.00 | 55 | 1005.8 |
| 20260505220910 | 18 | 199 | 1.6 | 14.5 | 0.00 | 0.00 | 0.00 | 55 | 1006.0 |
| 20260505220808 | 18 | 202 | 6.4 | 14.5 | 0.00 | 0.00 | 0.00 | 55 | 1005.8 |
| 20260505220741 | 18 | 199 | 4.8 | 14.5 | 0.00 | 0.00 | 0.00 | 55 | 1005.8 |
| 20260505220709 | 18 | 200 | 1.6 | 14.5 | 0.00 | 0.00 | 0.00 | 56 | 1006.0 |
| 20260505220644 | 18 | 192 | 6.4 | 12.9 | 0.00 | 0.00 | 0.00 | 56 | 1005.9 |
| 20260505220636 | 18 | 208 | 4.8 | 14.5 | 0.00 | 0.00 | 0.00 | 56 | 1005.8 |
| 20260505220620 | 18 | 225 | 3.2 | 14.5 | 0.00 | 0.00 | 0.00 | 56 | 1006.0 |
| 20260505220604 | 18 | 211 | 4.8 | 14.5 | 0.00 | 0.00 | 0.00 | 55 | 1006.2 |
| 20260505220547 | 18 | 196 | 0.0 | 12.9 | 0.00 | 0.00 | 0.00 | 56 | 1005.9 |
| 20260505220320 | 18 | 213 | 6.4 | 12.9 | 0.00 | 0.00 | 0.00 | 55 | 1006.0 |
| 20260505220033 | 18 | 187 | 1.6 | 12.9 | 0.00 | 0.00 | 0.00 | 56 | 1006.0 |
| 20260505220019 | 18 | 217 | 3.2 | 12.9 | 0.00 | 0.00 | 0.00 | 56 | 1005.9 |
| 20260505220002 | 18 | 223 | 3.2 | 12.9 | 0.00 | 0.00 | 0.00 | 56 | 1006.0 |
| 20260505215949 | 18 | 199 | 3.2 | 12.9 | 0.00 | 0.00 | 0.00 | 56 | 1006.0 |
| 20260505215940 | 18 | 203 | 1.6 | 12.9 | 0.00 | 0.00 | 0.00 | 56 | 1006.0 |
| 20260505215359 | 18 | 196 | 0.0 | 12.9 | 0.00 | 0.00 | 0.00 | 56 | 1006.2 |
| 20260505215258 | 18 | 188 | 0.0 | 12.9 | 0.00 | 0.00 | 0.00 | 56 | 1006.4 |
| 20260505215229 | 18 | 204 | 8.0 | 12.9 | 0.00 | 0.00 | 0.00 | 56 | 1006.2 |
| 20260505215158 | 18 | 214 | 0.0 | 12.9 | 0.00 | 0.00 | 0.00 | 56 | 1006.2 |
| 20260505215126 | 18 | 184 | 3.2 | 12.9 | 0.00 | 0.00 | 0.00 | 56 | 1006.2 |
| 20260505215111 | 18 | 207 | 9.7 | 12.9 | 0.00 | 0.00 | 0.00 | 56 | 1006.3 |
| 20260505215056 | 18 | 162 | 0.0 | 12.9 | 0.00 | 0.00 | 0.00 | 56 | 1006.0 |
| 20260505215039 | 18 | 189 | 3.2 | 12.9 | 0.00 | 0.00 | 0.00 | 56 | 1006.2 |
| 20260505215026 | 18 | 232 | 1.6 | 14.5 | 0.00 | 0.00 | 0.00 | 56 | 1005.9 |
| 20260505214453 | 19 | 196 | 0.0 | 14.5 | 0.00 | 0.00 | 0.00 | 56 | 1006.2 |
| 20260505214351 | 19 | 212 | 3.2 | 14.5 | 0.00 | 0.00 | 0.00 | 56 | 1006.2 |
| 20260505214251 | 19 | 178 | 0.0 | 14.5 | 0.00 | 0.00 | 0.00 | 56 | 1005.9 |
| 20260505214225 | 19 | 200 | 1.6 | 14.5 | 0.00 | 0.00 | 0.00 | 56 | 1006.2 |
| 20260505214151 | 19 | 186 | 1.6 | 14.5 | 0.00 | 0.00 | 0.00 | 56 | 1006.2 |
| 20260505214051 | 19 | 200 | 1.6 | 14.5 | 0.00 | 0.00 | 0.00 | 56 | 1006.3 |
| 20260505213951 | 19 | 204 | 1.6 | 14.5 | 0.00 | 0.00 | 0.00 | 55 | 1006.0 |
| 20260505213843 | 19 | 202 | 3.2 | 14.5 | 0.00 | 0.00 | 0.00 | 56 | 1006.2 |
| 20260505213810 | 19 | 219 | 4.8 | 12.9 | 0.00 | 0.00 | 0.00 | 55 | 1006.4 |
| 20260505213759 | 19 | 184 | 3.2 | 12.9 | 0.00 | 0.00 | 0.00 | 55 | 1006.0 |
| 20260505213747 | 19 | 222 | 1.6 | 12.9 | 0.00 | 0.00 | 0.00 | 55 | 1006.2 |
| 20260505213512 | 19 | 182 | 0.0 | 16.1 | 0.00 | 0.00 | 0.00 | 55 | 1006.4 |
| 20260505213503 | 19 | 200 | 1.6 | 16.1 | 0.00 | 0.00 | 0.00 | 55 | 1006.0 |
| 20260505213447 | 19 | 213 | 1.6 | 16.1 | 0.00 | 0.00 | 0.00 | 55 | 1006.2 |
| 20260505213431 | 19 | 184 | 3.2 | 16.1 | 0.00 | 0.00 | 0.00 | 55 | 1006.4 |
| 20260505213203 | 19 | 179 | 0.0 | 16.1 | 0.00 | 0.00 | 0.00 | 55 | 1006.2 |
| 20260505213147 | 19 | 184 | 3.2 | 16.1 | 0.00 | 0.00 | 0.00 | 55 | 1006.2 |
| 20260505212901 | 19 | 152 | 1.6 | 16.1 | 0.00 | 0.00 | 0.00 | 55 | 1006.4 |
| 20260505212852 | 19 | 205 | 1.6 | 20.9 | 0.00 | 0.00 | 0.00 | 55 | 1006.2 |
| 20260505212823 | 19 | 199 | 0.0 | 20.9 | 0.00 | 0.00 | 0.00 | 55 | 1006.2 |
| 20260505212812 | 19 | 215 | 4.8 | 20.9 | 0.00 | 0.00 | 0.00 | 55 | 1006.3 |
| 20260505212756 | 19 | 208 | 9.7 | 20.9 | 0.00 | 0.00 | 0.00 | 55 | 1006.3 |
| 20260505212254 | 19 | 215 | 3.2 | 20.9 | 0.00 | 0.00 | 0.00 | 55 | 1006.3 |
| 20260505212235 | 19 | 218 | 8.0 | 20.9 | 0.00 | 0.00 | 0.00 | 55 | 1006.5 |
| 20260505212219 | 19 | 217 | 3.2 | 20.9 | 0.00 | 0.00 | 0.00 | 55 | 1006.5 |
| 20260505212204 | 19 | 164 | 4.8 | 16.1 | 0.00 | 0.00 | 0.00 | 55 | 1006.5 |
| 20260505212147 | 19 | 202 | 1.6 | 16.1 | 0.00 | 0.00 | 0.00 | 55 | 1006.4 |
| 20260505211652 | 19 | 187 | 6.4 | 16.1 | 0.00 | 0.00 | 0.00 | 54 | 1006.2 |
| 20260505211636 | 19 | 229 | 12.9 | 16.1 | 0.00 | 0.00 | 0.00 | 54 | 1006.4 |
| 20260505211315 | 20 | 234 | 6.4 | 16.1 | 0.00 | 0.00 | 0.00 | 54 | 1006.3 |
| 20260505211216 | 20 | 207 | 1.6 | 20.9 | 0.00 | 0.00 | 0.00 | 54 | 1006.5 |
| 20260505211116 | 20 | 226 | 8.0 | 20.9 | 0.00 | 0.00 | 0.00 | 54 | 1006.4 |
| 20260505211016 | 20 | 225 | 6.4 | 20.9 | 0.00 | 0.00 | 0.00 | 54 | 1006.3 |
| 20260505210915 | 20 | 216 | 9.7 | 20.9 | 0.00 | 0.00 | 0.00 | 54 | 1006.4 |
| 20260505210815 | 20 | 223 | 8.0 | 20.9 | 0.00 | 0.00 | 0.00 | 54 | 1006.2 |
| 20260505210716 | 20 | 204 | 1.6 | 20.9 | 0.00 | 0.00 | 0.00 | 53 | 1006.4 |
| 20260505210615 | 20 | 244 | 9.7 | 20.9 | 0.00 | 0.00 | 0.00 | 53 | 1006.4 |
| 20260505210513 | 20 | 203 | 8.0 | 20.9 | 0.00 | 0.00 | 0.00 | 53 | 1006.2 |
| 20260505210356 | 20 | 211 | 4.8 | 20.9 | 0.00 | 0.00 | 0.00 | 53 | 1006.3 |
| 20260505210333 | 20 | 219 | 3.2 | 16.1 | 0.00 | 0.00 | 0.00 | 53 | 1006.4 |
| 20260505210010 | 20 | 208 | 3.2 | 16.1 | 0.00 | 0.00 | 0.00 | 53 | 1006.0 |
| 20260505205910 | 20 | 229 | 4.8 | 16.1 | 0.00 | 0.00 | 0.00 | 53 | 1006.3 |
| 20260505205809 | 20 | 224 | 3.2 | 16.1 | 0.00 | 0.00 | 0.00 | 53 | 1006.3 |
| 20260505205705 | 20 | 219 | 6.4 | 16.1 | 0.00 | 0.00 | 0.00 | 53 | 1006.2 |
| 20260505205605 | 20 | 228 | 11.3 | 16.1 | 0.00 | 0.00 | 0.00 | 53 | 1006.4 |
| 20260505205505 | 20 | 200 | 1.6 | 16.1 | 0.00 | 0.00 | 0.00 | 53 | 1006.4 |
| 20260505205405 | 19 | 178 | 0.0 | 16.1 | 0.00 | 0.00 | 0.00 | 53 | 1006.3 |
| 20260505205322 | 20 | 182 | 1.6 | 11.3 | 0.00 | 0.00 | 0.00 | 53 | 1006.2 |
| 20260505205316 | 19 | 190 | 11.3 | 14.5 | 0.00 | 0.00 | 0.00 | 53 | 1006.4 |
| 20260505205254 | 19 | 190 | 3.2 | 11.3 | 0.00 | 0.00 | 0.00 | 53 | 1006.2 |
| 20260505205227 | 19 | 196 | 0.0 | 11.3 | 0.00 | 0.00 | 0.00 | 53 | 1006.3 |
| 20260505205208 | 19 | 181 | 1.6 | 11.3 | 0.00 | 0.00 | 0.00 | 53 | 1006.2 |
| 20260505204930 | 19 | 206 | 3.2 | 11.3 | 0.00 | 0.00 | 0.00 | 53 | 1006.2 |
| 20260505204913 | 20 | 182 | 1.6 | 11.3 | 0.00 | 0.00 | 0.00 | 53 | 1006.2 |
| 20260505204604 | 20 | 198 | 1.6 | 11.3 | 0.00 | 0.00 | 0.00 | 53 | 1006.2 |
| 20260505204500 | 20 | 205 | 0.0 | 11.3 | 0.00 | 0.00 | 0.00 | 52 | 1006.2 |
| 20260505204359 | 20 | 191 | 0.0 | 11.3 | 0.00 | 0.00 | 0.00 | 52 | 1006.3 |
| 20260505204259 | 19 | 207 | 6.4 | 11.3 | 0.00 | 0.00 | 0.00 | 52 | 1006.3 |
| 20260505204159 | 19 | 160 | 3.2 | 6.4 | 0.00 | 0.00 | 0.00 | 52 | 1006.2 |
| 20260505204100 | 19 | 200 | 1.6 | 6.4 | 0.00 | 0.00 | 0.00 | 52 | 1006.2 |
| 20260505204032 | 20 | 194 | 3.2 | 6.4 | 0.00 | 0.00 | 0.00 | 52 | 1006.3 |
| 20260505204024 | 19 | 184 | 1.6 | 6.4 | 0.00 | 0.00 | 0.00 | 52 | 1006.3 |
| 20260505204009 | 19 | 202 | 0.0 | 6.4 | 0.00 | 0.00 | 0.00 | 53 | 1006.0 |
| 20260505203954 | 20 | 188 | 0.0 | 6.4 | 0.00 | 0.00 | 0.00 | 52 | 1006.0 |
| 20260505203931 | 20 | 196 | 0.0 | 6.4 | 0.00 | 0.00 | 0.00 | 52 | 1006.0 |
| 20260505203916 | 20 | 199 | 1.6 | 6.4 | 0.00 | 0.00 | 0.00 | 52 | 1006.2 |
| 20260505203900 | 20 | 192 | 0.0 | 6.4 | 0.00 | 0.00 | 0.00 | 52 | 1005.8 |
| 20260505203845 | 20 | 181 | 1.6 | 6.4 | 0.00 | 0.00 | 0.00 | 52 | 1006.3 |
| 20260505203829 | 20 | 194 | 1.6 | 6.4 | 0.00 | 0.00 | 0.00 | 52 | 1006.5 |
| 20260505203807 | 20 | 190 | 0.0 | 4.8 | 0.00 | 0.00 | 0.00 | 52 | 1006.3 |
| 20260505203309 | 20 | 194 | 0.0 | 6.4 | 0.00 | 0.00 | 0.00 | 52 | 1006.0 |
| 20260505203253 | 20 | 196 | 0.0 | 6.4 | 0.00 | 0.00 | 0.00 | 52 | 1006.0 |
| 20260505202459 | 20 | 204 | 1.6 | 9.7 | 0.00 | 0.00 | 0.00 | 52 | 1006.3 |
| 20260505202400 | 20 | 199 | 0.0 | 9.7 | 0.00 | 0.00 | 0.00 | 52 | 1006.2 |
| 20260505202259 | 20 | 171 | 0.0 | 9.7 | 0.00 | 0.00 | 0.00 | 52 | 1006.2 |
| 20260505202159 | 20 | 201 | 3.2 | 9.7 | 0.00 | 0.00 | 0.00 | 52 | 1006.0 |
| 20260505202100 | 20 | 187 | 1.6 | 9.7 | 0.00 | 0.00 | 0.00 | 51 | 1006.0 |
| 20260505202000 | 20 | 199 | 1.6 | 9.7 | 0.00 | 0.00 | 0.00 | 52 | 1006.0 |
| 20260505201903 | 20 | 199 | 1.6 | 9.7 | 0.00 | 0.00 | 0.00 | 52 | 1006.3 |
| 20260505201832 | 20 | 203 | 1.6 | 6.4 | 0.00 | 0.00 | 0.00 | 50 | 1006.0 |
| 20260505201825 | 20 | 185 | 0.0 | 6.4 | 0.00 | 0.00 | 0.00 | 51 | 1006.2 |
| 20260505201818 | 20 | 190 | 0.0 | 9.7 | 0.00 | 0.00 | 0.00 | 52 | 1006.3 |
| 20260505201756 | 20 | 174 | 0.0 | 9.7 | 0.00 | 0.00 | 0.00 | 51 | 1006.2 |
| 20260505201740 | 20 | 175 | 1.6 | 9.7 | 0.00 | 0.00 | 0.00 | 51 | 1006.3 |
| 20260505201724 | 20 | 199 | 1.6 | 9.7 | 0.00 | 0.00 | 0.00 | 52 | 1006.0 |
| 20260505201707 | 20 | 207 | 1.6 | 9.7 | 0.00 | 0.00 | 0.00 | 52 | 1006.4 |
| 20260505201651 | 20 | 188 | 0.0 | 9.7 | 0.00 | 0.00 | 0.00 | 51 | 1005.9 |
| 20260505201628 | 20 | 198 | 0.0 | 9.7 | 0.00 | 0.00 | 0.00 | 51 | 1006.2 |
| 20260505201537 | 20 | 174 | 0.0 | 9.7 | 0.00 | 0.00 | 0.00 | 51 | 1006.0 |
| 20260505201512 | 20 | 196 | 3.2 | 9.7 | 0.00 | 0.00 | 0.00 | 51 | 1006.2 |
| 20260505201231 | 20 | 190 | 0.0 | 9.7 | 0.00 | 0.00 | 0.00 | 51 | 1006.3 |
| 20260505201209 | 20 | 207 | 0.0 | 9.7 | 0.00 | 0.00 | 0.00 | 51 | 1006.0 |
| 20260505201153 | 20 | 198 | 1.6 | 9.7 | 0.00 | 0.00 | 0.00 | 51 | 1006.2 |
| 20260505200918 | 20 | 209 | 0.0 | 9.7 | 0.00 | 0.00 | 0.00 | 50 | 1006.2 |
| 20260505200902 | 20 | 224 | 3.2 | 9.7 | 0.00 | 0.00 | 0.00 | 51 | 1006.2 |
| 20260505200413 | 20 | 194 | 0.0 | 6.4 | 0.00 | 0.00 | 0.00 | 51 | 1006.2 |
| 20260505195929 | 20 | 204 | 1.6 | 6.4 | 0.00 | 0.00 | 0.00 | 51 | 1006.2 |
| 20260505195913 | 20 | 190 | 0.0 | 6.4 | 0.00 | 0.00 | 0.00 | 50 | 1005.9 |
| 20260505195857 | 20 | 203 | 1.6 | 6.4 | 0.00 | 0.00 | 0.00 | 50 | 1006.0 |
| 20260505195546 | 20 | 187 | 0.0 | 6.4 | 0.00 | 0.00 | 0.00 | 50 | 1006.0 |
| 20260505195446 | 20 | 187 | 0.0 | 6.4 | 0.00 | 0.00 | 0.00 | 50 | 1006.2 |
| 20260505195341 | 20 | 165 | 0.0 | 6.4 | 0.00 | 0.00 | 0.00 | 50 | 1006.2 |
| 20260505195241 | 20 | 191 | 0.0 | 9.7 | 0.00 | 0.00 | 0.00 | 50 | 1006.0 |
| 20260505195141 | 20 | 190 | 3.2 | 9.7 | 0.00 | 0.00 | 0.00 | 50 | 1006.2 |
| 20260505195041 | 20 | 182 | 0.0 | 9.7 | 0.00 | 0.00 | 0.00 | 50 | 1006.0 |
| 20260505194941 | 20 | 191 | 3.2 | 9.7 | 0.00 | 0.00 | 0.00 | 49 | 1006.2 |
| 20260505194841 | 20 | 204 | 0.0 | 9.7 | 0.00 | 0.00 | 0.00 | 49 | 1006.3 |
| 20260505194741 | 20 | 181 | 1.6 | 11.3 | 0.00 | 0.00 | 0.00 | 49 | 1005.9 |
| 20260505194641 | 20 | 208 | 3.2 | 11.3 | 0.00 | 0.00 | 0.00 | 50 | 1006.2 |
| 20260505194540 | 20 | 202 | 0.0 | 12.9 | 0.00 | 0.00 | 0.00 | 50 | 1006.0 |
| 20260505194439 | 20 | 208 | 1.6 | 12.9 | 0.00 | 0.00 | 0.00 | 49 | 1006.3 |
| 20260505194339 | 20 | 198 | 4.8 | 12.9 | 0.00 | 0.00 | 0.00 | 49 | 1006.0 |
| 20260505194240 | 20 | 200 | 0.0 | 12.9 | 0.00 | 0.00 | 0.00 | 50 | 1006.2 |
| 20260505194136 | 20 | 192 | 1.6 | 12.9 | 0.00 | 0.00 | 0.00 | 50 | 1006.3 |
| 20260505194128 | 20 | 192 | 1.6 | 12.9 | 0.00 | 0.00 | 0.00 | 49 | 1006.2 |
| 20260505194028 | 20 | 206 | 0.0 | 12.9 | 0.00 | 0.00 | 0.00 | 49 | 1006.2 |
| 20260505194003 | 20 | 188 | 0.0 | 12.9 | 0.00 | 0.00 | 0.00 | 49 | 1006.2 |
| 20260505193947 | 20 | 194 | 8.0 | 12.9 | 0.00 | 0.00 | 0.00 | 49 | 1006.4 |
| 20260505193635 | 20 | 202 | 8.0 | 12.9 | 0.00 | 0.00 | 0.00 | 48 | 1005.9 |
| 20260505193626 | 20 | 202 | 8.0 | 12.9 | 0.00 | 0.00 | 0.00 | 49 | 1006.2 |
| 20260505193521 | 20 | 189 | 0.0 | 9.7 | 0.00 | 0.00 | 0.00 | 49 | 1006.0 |
| 20260505193423 | 20 | 264 | 6.4 | 9.7 | 0.00 | 0.00 | 0.00 | 49 | 1006.3 |
| 20260505193321 | 20 | 187 | 0.0 | 9.7 | 0.00 | 0.00 | 0.00 | 49 | 1006.0 |
| 20260505193301 | 20 | 216 | 6.4 | 9.7 | 0.00 | 0.00 | 0.00 | 48 | 1006.2 |
| 20260505193246 | 20 | 190 | 0.0 | 4.8 | 0.00 | 0.00 | 0.00 | 48 | 1006.0 |
| 20260505193237 | 20 | 200 | 0.0 | 4.8 | 0.00 | 0.00 | 0.00 | 48 | 1006.0 |
| 20260505192953 | 20 | 182 | 0.0 | 4.8 | 0.00 | 0.00 | 0.00 | 48 | 1006.0 |
| 20260505192937 | 20 | 196 | 1.6 | 4.8 | 0.00 | 0.00 | 0.00 | 48 | 1006.3 |
| 20260505192617 | 20 | 187 | 1.6 | 4.8 | 0.00 | 0.00 | 0.00 | 48 | 1006.2 |
| 20260505192516 | 20 | 188 | 0.0 | 4.8 | 0.00 | 0.00 | 0.00 | 48 | 1006.3 |
| 20260505192417 | 20 | 191 | 0.0 | 4.8 | 0.00 | 0.00 | 0.00 | 48 | 1006.0 |
| 20260505192317 | 20 | 192 | 0.0 | 4.8 | 0.00 | 0.00 | 0.00 | 48 | 1006.2 |
| 20260505192216 | 20 | 189 | 0.0 | 4.8 | 0.00 | 0.00 | 0.00 | 47 | 1006.3 |
| 20260505192116 | 20 | 183 | 0.0 | 4.8 | 0.00 | 0.00 | 0.00 | 48 | 1006.4 |
| 20260505192017 | 21 | 189 | 1.6 | 9.7 | 0.00 | 0.00 | 0.00 | 48 | 1006.5 |
| 20260505191952 | 21 | 187 | 0.0 | 9.7 | 0.00 | 0.00 | 0.00 | 47 | 1006.0 |
| 20260505191937 | 21 | 198 | 3.2 | 9.7 | 0.00 | 0.00 | 0.00 | 47 | 1006.3 |
| 20260505191623 | 21 | 194 | 0.0 | 9.7 | 0.00 | 0.00 | 0.00 | 48 | 1006.4 |
| 20260505191615 | 21 | 185 | 0.0 | 9.7 | 0.00 | 0.00 | 0.00 | 47 | 1006.4 |
| 20260505191515 | 21 | 192 | 0.0 | 9.7 | 0.00 | 0.00 | 0.00 | 47 | 1006.2 |
| 20260505191443 | 21 | 200 | 1.6 | 9.7 | 0.00 | 0.00 | 0.00 | 47 | 1006.3 |
| 20260505191427 | 21 | 198 | 1.6 | 9.7 | 0.00 | 0.00 | 0.00 | 47 | 1006.2 |
| 20260505191133 | 21 | 221 | 6.4 | 11.3 | 0.00 | 0.00 | 0.00 | 47 | 1006.4 |
| 20260505191124 | 21 | 234 | 3.2 | 11.3 | 0.00 | 0.00 | 0.00 | 47 | 1006.3 |
| 20260505191108 | 21 | 208 | 3.2 | 11.3 | 0.00 | 0.00 | 0.00 | 47 | 1006.2 |
| 20260505191052 | 21 | 195 | 3.2 | 11.3 | 0.00 | 0.00 | 0.00 | 47 | 1006.2 |
| 20260505191035 | 21 | 166 | 0.0 | 11.3 | 0.00 | 0.00 | 0.00 | 47 | 1006.2 |
| 20260505190801 | 21 | 220 | 3.2 | 11.3 | 0.00 | 0.00 | 0.00 | 47 | 1006.3 |
| 20260505190753 | 21 | 198 | 0.0 | 11.3 | 0.00 | 0.00 | 0.00 | 47 | 1006.3 |
| 20260505190738 | 21 | 199 | 1.6 | 11.3 | 0.00 | 0.00 | 0.00 | 47 | 1006.3 |
| 20260505190722 | 21 | 214 | 3.2 | 11.3 | 0.00 | 0.00 | 0.00 | 46 | 1006.4 |
| 20260505190706 | 21 | 204 | 1.6 | 11.3 | 0.00 | 0.00 | 0.00 | 47 | 1006.3 |
| 20260505190431 | 21 | 198 | 0.0 | 6.4 | 0.00 | 0.00 | 0.00 | 47 | 1006.2 |
| 20260505185857 | 21 | 202 | 4.8 | 6.4 | 0.00 | 0.00 | 0.00 | 46 | 1006.3 |
| 20260505185758 | 21 | 192 | 0.0 | 6.4 | 0.00 | 0.00 | 0.00 | 46 | 1006.3 |
| 20260505185733 | 21 | 194 | 1.6 | 6.4 | 0.00 | 0.00 | 0.00 | 46 | 1006.2 |
| 20260505185718 | 21 | 211 | 1.6 | 6.4 | 0.00 | 0.00 | 0.00 | 46 | 1006.3 |
| 20260505185710 | 21 | 203 | 4.8 | 6.4 | 0.00 | 0.00 | 0.00 | 46 | 1006.3 |
| 20260505185655 | 21 | 201 | 0.0 | 4.8 | 0.00 | 0.00 | 0.00 | 46 | 1006.0 |
| 20260505185639 | 21 | 196 | 1.6 | 4.8 | 0.00 | 0.00 | 0.00 | 46 | 1006.4 |
| 20260505185118 | 21 | 200 | 1.6 | 4.8 | 0.00 | 0.00 | 0.00 | 46 | 1006.3 |
| 20260505185058 | 21 | 187 | 0.0 | 4.8 | 0.00 | 0.00 | 0.00 | 46 | 1006.3 |
| 20260505184958 | 21 | 199 | 3.2 | 4.8 | 0.00 | 0.00 | 0.00 | 45 | 1005.9 |
| 20260505184858 | 21 | 216 | 3.2 | 4.8 | 0.00 | 0.00 | 0.00 | 45 | 1006.3 |
| 20260505184758 | 21 | 186 | 0.0 | 4.8 | 0.00 | 0.00 | 0.00 | 45 | 1006.0 |
| 20260505184740 | 21 | 192 | 0.0 | 4.8 | 0.00 | 0.00 | 0.00 | 45 | 1006.2 |
| 20260505184726 | 21 | 193 | 0.0 | 4.8 | 0.00 | 0.00 | 0.00 | 45 | 1006.2 |
| 20260505184718 | 21 | 198 | 0.0 | 9.7 | 0.00 | 0.00 | 0.00 | 45 | 1006.2 |
| 20260505184358 | 21 | 204 | 0.0 | 9.7 | 0.00 | 0.00 | 0.00 | 45 | 1006.4 |
| 20260505184257 | 21 | 206 | 0.0 | 9.7 | 0.00 | 0.00 | 0.00 | 45 | 1006.5 |
| 20260505184157 | 21 | 206 | 0.0 | 9.7 | 0.00 | 0.00 | 0.00 | 45 | 1006.0 |
| 20260505184117 | 21 | 210 | 1.6 | 9.7 | 0.00 | 0.00 | 0.00 | 45 | 1006.2 |
| 20260505184058 | 22 | 209 | 1.6 | 9.7 | 0.00 | 0.00 | 0.00 | 45 | 1006.2 |
| 20260505184035 | 22 | 201 | 1.6 | 9.7 | 0.00 | 0.00 | 0.00 | 45 | 1006.3 |
| 20260505184019 | 22 | 226 | 3.2 | 9.7 | 0.00 | 0.00 | 0.00 | 45 | 1005.8 |
| 20260505183657 | 22 | 196 | 1.6 | 9.7 | 0.00 | 0.00 | 0.00 | 45 | 1006.4 |
| 20260505183618 | 22 | 210 | 4.8 | 9.7 | 0.00 | 0.00 | 0.00 | 45 | 1005.9 |
| 20260505183557 | 22 | 222 | 6.4 | 9.7 | 0.00 | 0.00 | 0.00 | 45 | 1005.9 |
| 20260505183457 | 22 | 214 | 3.2 | 6.4 | 0.00 | 0.00 | 0.00 | 45 | 1006.0 |
| 20260505183357 | 22 | 217 | 3.2 | 6.4 | 0.00 | 0.00 | 0.00 | 45 | 1005.8 |
| 20260505183258 | 22 | 226 | 1.6 | 6.4 | 0.00 | 0.00 | 0.00 | 45 | 1006.0 |
| 20260505183157 | 22 | 230 | 3.2 | 9.7 | 0.00 | 0.00 | 0.00 | 45 | 1006.2 |
| 20260505183105 | 22 | 177 | 3.2 | 9.7 | 0.00 | 0.00 | 0.00 | 44 | 1006.2 |
| 20260505183057 | 22 | 220 | 1.6 | 9.7 | 0.00 | 0.00 | 0.00 | 44 | 1006.2 |
| 20260505183036 | 22 | 215 | 1.6 | 9.7 | 0.00 | 0.00 | 0.00 | 44 | 1005.9 |
| 20260505183028 | 22 | 209 | 1.6 | 9.7 | 0.00 | 0.00 | 0.00 | 44 | 1006.2 |
| 20260505183012 | 22 | 211 | 1.6 | 9.7 | 0.00 | 0.00 | 0.00 | 44 | 1006.2 |
| 20260505182954 | 22 | 198 | 1.6 | 9.7 | 0.00 | 0.00 | 0.00 | 44 | 1006.3 |
| 20260505182939 | 22 | 196 | 1.6 | 9.7 | 0.00 | 0.00 | 0.00 | 44 | 1006.0 |
| 20260505182711 | 22 | 202 | 1.6 | 9.7 | 0.00 | 0.00 | 0.00 | 44 | 1005.9 |
| 20260505182351 | 22 | 207 | 0.0 | 9.7 | 0.00 | 0.00 | 0.00 | 44 | 1006.0 |
| 20260505182247 | 22 | 211 | 4.8 | 9.7 | 0.00 | 0.00 | 0.00 | 44 | 1006.2 |
| 20260505182148 | 22 | 214 | 6.4 | 9.7 | 0.00 | 0.00 | 0.00 | 43 | 1006.0 |
| 20260505182057 | 22 | 236 | 3.2 | 9.7 | 0.00 | 0.00 | 0.00 | 44 | 1006.0 |
| 20260505182047 | 22 | 208 | 1.6 | 9.7 | 0.00 | 0.00 | 0.00 | 44 | 1006.0 |
| 20260505182035 | 22 | 231 | 3.2 | 12.9 | 0.00 | 0.00 | 0.00 | 43 | 1005.9 |
| 20260505182030 | 22 | 194 | 1.6 | 12.9 | 0.00 | 0.00 | 0.00 | 43 | 1005.8 |
| 20260505182025 | 23 | 215 | 3.2 | 14.5 | 0.00 | 0.00 | 0.00 | 42 | 1005.7 |
| 20260505182017 | 22 | 200 | 0.0 | 12.9 | 0.00 | 0.00 | 0.00 | 44 | 1005.9 |
| 20260505182001 | 22 | 237 | 4.8 | 12.9 | 0.00 | 0.00 | 0.00 | 44 | 1006.0 |
| 20260505181946 | 22 | 225 | 3.2 | 12.9 | 0.00 | 0.00 | 0.00 | 43 | 1006.0 |
| 20260505181930 | 22 | 211 | 0.0 | 12.9 | 0.00 | 0.00 | 0.00 | 43 | 1005.8 |
| 20260505181702 | 22 | 207 | 0.0 | 12.9 | 0.00 | 0.00 | 0.00 | 43 | 1005.9 |
| 20260505181646 | 22 | 198 | 0.0 | 12.9 | 0.00 | 0.00 | 0.00 | 43 | 1006.0 |
| 20260505181631 | 22 | 200 | 0.0 | 12.9 | 0.00 | 0.00 | 0.00 | 43 | 1006.0 |
| 20260505181614 | 22 | 205 | 1.6 | 12.9 | 0.00 | 0.00 | 0.00 | 43 | 1005.8 |
| 20260505181558 | 22 | 208 | 0.0 | 12.9 | 0.00 | 0.00 | 0.00 | 43 | 1005.9 |
| 20260505181329 | 22 | 199 | 4.8 | 12.9 | 0.00 | 0.00 | 0.00 | 43 | 1005.8 |
| 20260505181314 | 22 | 200 | 0.0 | 11.3 | 0.00 | 0.00 | 0.00 | 43 | 1005.8 |
| 20260505181258 | 22 | 233 | 1.6 | 11.3 | 0.00 | 0.00 | 0.00 | 43 | 1005.9 |
| 20260505181023 | 22 | 222 | 3.2 | 14.5 | 0.00 | 0.00 | 0.00 | 42 | 1005.7 |
| 20260505181008 | 22 | 207 | 3.2 | 14.5 | 0.00 | 0.00 | 0.00 | 42 | 1006.2 |
| 20260505180740 | 22 | 237 | 3.2 | 14.5 | 0.00 | 0.00 | 0.00 | 42 | 1005.8 |
| 20260505180724 | 22 | 187 | 4.8 | 14.5 | 0.00 | 0.00 | 0.00 | 42 | 1006.0 |
| 20260505180447 | 22 | 207 | 1.6 | 14.5 | 0.00 | 0.00 | 0.00 | 42 | 1005.8 |
| 20260505175912 | 23 | 192 | 1.6 | 14.5 | 0.00 | 0.00 | 0.00 | 41 | 1006.0 |
| 20260505175856 | 23 | 209 | 9.7 | 20.9 | 0.00 | 0.00 | 0.00 | 41 | 1006.0 |
| 20260505175555 | 23 | 202 | 1.6 | 20.9 | 0.00 | 0.00 | 0.00 | 41 | 1006.3 |
| 20260505175534 | 23 | 252 | 3.2 | 20.9 | 0.00 | 0.00 | 0.00 | 41 | 1006.3 |
| 20260505175435 | 23 | 201 | 3.2 | 20.9 | 0.00 | 0.00 | 0.00 | 41 | 1005.9 |
| 20260505175333 | 23 | 188 | 8.0 | 20.9 | 0.00 | 0.00 | 0.00 | 40 | 1005.9 |
| 20260505175234 | 23 | 145 | 1.6 | 20.9 | 0.00 | 0.00 | 0.00 | 40 | 1005.9 |
| 20260505175213 | 23 | 222 | 3.2 | 20.9 | 0.00 | 0.00 | 0.00 | 40 | 1006.3 |
| 20260505175157 | 23 | 223 | 3.2 | 20.9 | 0.00 | 0.00 | 0.00 | 40 | 1005.8 |
| 20260505175149 | 23 | 171 | 1.6 | 20.9 | 0.00 | 0.00 | 0.00 | 40 | 1005.9 |
| 20260505174828 | 23 | 216 | 3.2 | 20.9 | 0.00 | 0.00 | 0.00 | 39 | 1005.8 |
| 20260505174728 | 23 | 225 | 9.7 | 20.9 | 0.00 | 0.00 | 0.00 | 39 | 1005.7 |
| 20260505174707 | 23 | 229 | 0.0 | 20.9 | 0.00 | 0.00 | 0.00 | 39 | 1005.9 |
| 20260505174651 | 23 | 201 | 4.8 | 20.9 | 0.00 | 0.00 | 0.00 | 39 | 1005.9 |
| 20260505174328 | 23 | 163 | 6.4 | 20.9 | 0.00 | 0.00 | 0.00 | 38 | 1005.7 |
| 20260505174228 | 23 | 207 | 3.2 | 20.9 | 0.00 | 0.00 | 0.00 | 38 | 1006.0 |
| 20260505174211 | 23 | 209 | 6.4 | 20.9 | 0.00 | 0.00 | 0.00 | 38 | 1005.9 |
| 20260505174155 | 23 | 217 | 8.0 | 20.9 | 0.00 | 0.00 | 0.00 | 37 | 1005.9 |
| 20260505174147 | 23 | 240 | 4.8 | 20.9 | 0.00 | 0.00 | 0.00 | 37 | 1005.8 |
| 20260505173827 | 23 | 265 | 1.6 | 20.9 | 0.00 | 0.00 | 0.00 | 36 | 1005.9 |
| 20260505173728 | 23 | 178 | 1.6 | 20.9 | 0.00 | 0.00 | 0.00 | 36 | 1005.8 |
| 20260505173629 | 23 | 221 | 0.0 | 20.9 | 0.00 | 0.00 | 0.00 | 36 | 1005.7 |
| 20260505173614 | 23 | 230 | 4.8 | 20.9 | 0.00 | 0.00 | 0.00 | 35 | 1005.7 |
| 20260505173607 | 23 | 284 | 11.3 | 20.9 | 0.00 | 0.00 | 0.00 | 35 | 1005.8 |
| 20260505173550 | 23 | 259 | 4.8 | 9.7 | 0.00 | 0.00 | 0.00 | 35 | 1005.8 |
| 20260505173228 | 23 | 192 | 0.0 | 9.7 | 0.00 | 0.00 | 0.00 | 35 | 1005.8 |
| 20260505173129 | 23 | 189 | 0.0 | 9.7 | 0.00 | 0.00 | 0.00 | 35 | 1005.8 |
| 20260505173049 | 23 | 248 | 0.0 | 9.7 | 0.00 | 0.00 | 0.00 | 33 | 1005.8 |
| 20260505173027 | 23 | 222 | 6.4 | 9.7 | 0.00 | 0.00 | 0.00 | 33 | 1005.7 |
| 20260505172917 | 23 | 227 | 0.0 | 11.3 | 0.00 | 0.00 | 0.00 | 33 | 1005.7 |
| 20260505172850 | 23 | 205 | 0.0 | 11.3 | 0.00 | 0.00 | 0.00 | 33 | 1005.8 |
| 20260505172835 | 23 | 194 | 0.0 | 11.3 | 0.00 | 0.00 | 0.00 | 33 | 1005.8 |
| 20260505172600 | 23 | 216 | 8.0 | 11.3 | 0.00 | 0.00 | 0.00 | 33 | 1005.7 |
| 20260505172551 | 23 | 194 | 0.0 | 12.9 | 0.00 | 0.00 | 0.00 | 33 | 1005.5 |
| 20260505172536 | 23 | 208 | 3.2 | 12.9 | 0.00 | 0.00 | 0.00 | 33 | 1005.5 |
| 20260505172215 | 24 | 198 | 0.0 | 12.9 | 0.00 | 0.00 | 0.00 | 33 | 1005.7 |
| 20260505172116 | 24 | 214 | 0.0 | 12.9 | 0.00 | 0.00 | 0.00 | 32 | 1005.6 |
| 20260505172106 | 24 | 208 | 3.2 | 24.1 | 0.00 | 0.00 | 0.00 | 31 | 1005.8 |
| 20260505172056 | 24 | 210 | 6.4 | 12.9 | 0.00 | 0.00 | 0.00 | 32 | 1005.6 |
| 20260505172047 | 24 | 203 | 6.4 | 12.9 | 0.00 | 0.00 | 0.00 | 32 | 1005.5 |
| 20260505172031 | 24 | 222 | 0.0 | 12.9 | 0.00 | 0.00 | 0.00 | 32 | 1005.8 |
| 20260505172014 | 24 | 201 | 0.0 | 12.9 | 0.00 | 0.00 | 0.00 | 32 | 1005.5 |
| 20260505171958 | 24 | 195 | 4.8 | 12.9 | 0.00 | 0.00 | 0.00 | 32 | 1005.7 |
| 20260505171943 | 24 | 198 | 1.6 | 22.5 | 0.00 | 0.00 | 0.00 | 32 | 1005.8 |
| 20260505171930 | 24 | 227 | 8.0 | 22.5 | 0.00 | 0.00 | 0.00 | 31 | 1005.8 |
| 20260505171450 | 24 | 195 | 4.8 | 22.5 | 0.00 | 0.00 | 0.00 | 31 | 1005.6 |
| 20260505171434 | 24 | 147 | 3.2 | 22.5 | 0.00 | 0.00 | 0.00 | 31 | 1005.6 |
| 20260505171418 | 24 | 228 | 3.2 | 24.1 | 0.00 | 0.00 | 0.00 | 31 | 1005.8 |
| 20260505171404 | 24 | 228 | 4.8 | 24.1 | 0.00 | 0.00 | 0.00 | 31 | 1005.8 |
| 20260505171136 | 24 | 217 | 1.6 | 24.1 | 0.00 | 0.00 | 0.00 | 31 | 1005.5 |
| 20260505170905 | 24 | 238 | 1.6 | 24.1 | 0.00 | 0.00 | 0.00 | 31 | 1005.7 |
| 20260505170857 | 24 | 219 | 4.8 | 24.1 | 0.00 | 0.00 | 0.00 | 31 | 1005.8 |
| 20260505170843 | 24 | 252 | 1.6 | 24.1 | 0.00 | 0.00 | 0.00 | 31 | 1005.4 |
| 20260505170828 | 24 | 187 | 0.0 | 24.1 | 0.00 | 0.00 | 0.00 | 32 | 1005.7 |
| 20260505170601 | 24 | 199 | 0.0 | 24.1 | 0.00 | 0.00 | 0.00 | 31 | 1005.6 |
| 20260505170544 | 24 | 278 | 9.7 | 24.1 | 0.00 | 0.00 | 0.00 | 31 | 1005.7 |
| 20260505170310 | 24 | 232 | 11.3 | 20.9 | 0.00 | 0.00 | 0.00 | 31 | 1005.6 |
| 20260505170042 | 24 | 214 | 6.4 | 16.1 | 0.00 | 0.00 | 0.00 | 31 | 1005.7 |
| 20260505165941 | 24 | 198 | 6.4 | 16.1 | 0.00 | 0.00 | 0.00 | 31 | 1005.7 |
| 20260505165843 | 24 | 198 | 0.0 | 16.1 | 0.00 | 0.00 | 0.00 | 31 | 1005.6 |
| 20260505165740 | 24 | 237 | 4.8 | 16.1 | 0.00 | 0.00 | 0.00 | 31 | 1005.6 |
| 20260505165641 | 24 | 222 | 3.2 | 16.1 | 0.00 | 0.00 | 0.00 | 31 | 1005.6 |
| 20260505165543 | 24 | 222 | 12.9 | 16.1 | 0.00 | 0.00 | 0.00 | 31 | 1005.7 |
| 20260505165442 | 24 | 229 | 8.0 | 16.1 | 0.00 | 0.00 | 0.00 | 31 | 1005.5 |
| 20260505165341 | 24 | 335 | 9.7 | 16.1 | 0.00 | 0.00 | 0.00 | 31 | 1005.7 |
| 20260505165322 | 24 | 199 | 6.4 | 9.7 | 0.00 | 0.00 | 0.00 | 31 | 1005.7 |
| 20260505165308 | 25 | 213 | 3.2 | 9.7 | 0.00 | 0.00 | 0.00 | 30 | 1005.8 |
| 20260505165039 | 25 | 192 | 3.2 | 9.7 | 0.00 | 0.00 | 0.00 | 31 | 1005.5 |
| 20260505164603 | 25 | 72 | 4.8 | 17.7 | 0.00 | 0.00 | 0.00 | 30 | 1005.7 |
| 20260505164503 | 25 | 261 | 3.2 | 17.7 | 0.00 | 0.00 | 0.00 | 31 | 1005.8 |
| 20260505164403 | 25 | 155 | 0.0 | 17.7 | 0.00 | 0.00 | 0.00 | 31 | 1005.8 |
| 20260505164347 | 25 | 216 | 1.6 | 17.7 | 0.00 | 0.00 | 0.00 | 31 | 1005.8 |
| 20260505164331 | 25 | 205 | 3.2 | 17.7 | 0.00 | 0.00 | 0.00 | 30 | 1005.9 |
| 20260505164103 | 25 | 183 | 3.2 | 17.7 | 0.00 | 0.00 | 0.00 | 30 | 1005.9 |
| 20260505164017 | 25 | 218 | 9.7 | 22.5 | 0.00 | 0.00 | 0.00 | 29 | 1005.8 |
| 20260505164013 | 25 | 172 | 0.0 | 22.5 | 0.00 | 0.00 | 0.00 | 29 | 1005.9 |
| 20260505164005 | 25 | 237 | 6.4 | 17.7 | 0.00 | 0.00 | 0.00 | 30 | 1005.9 |
| 20260505163949 | 25 | 217 | 4.8 | 17.7 | 0.00 | 0.00 | 0.00 | 30 | 1005.9 |
| 20260505163933 | 25 | 212 | 0.0 | 17.7 | 0.00 | 0.00 | 0.00 | 31 | 1005.8 |
| 20260505163917 | 25 | 265 | 8.0 | 17.7 | 0.00 | 0.00 | 0.00 | 30 | 1005.5 |
| 20260505163854 | 25 | 186 | 0.0 | 17.7 | 0.00 | 0.00 | 0.00 | 31 | 1005.9 |
| 20260505163838 | 25 | 212 | 8.0 | 17.7 | 0.00 | 0.00 | 0.00 | 30 | 1005.8 |
| 20260505163820 | 25 | 214 | 4.8 | 17.7 | 0.00 | 0.00 | 0.00 | 30 | 1005.8 |
| 20260505163317 | 25 | 107 | 1.6 | 17.7 | 0.00 | 0.00 | 0.00 | 30 | 1005.9 |
| 20260505163301 | 25 | 234 | 0.0 | 17.7 | 0.00 | 0.00 | 0.00 | 30 | 1005.8 |
| 20260505163245 | 25 | 186 | 0.0 | 17.7 | 0.00 | 0.00 | 0.00 | 31 | 1005.8 |
| 20260505163229 | 25 | 177 | 0.0 | 17.7 | 0.00 | 0.00 | 0.00 | 30 | 1005.6 |
| 20260505162946 | 25 | 231 | 6.4 | 17.7 | 0.00 | 0.00 | 0.00 | 30 | 1005.6 |
| 20260505162930 | 25 | 169 | 1.6 | 20.9 | 0.00 | 0.00 | 0.00 | 30 | 1005.7 |
| 20260505162912 | 25 | 248 | 3.2 | 20.9 | 0.00 | 0.00 | 0.00 | 30 | 1005.8 |
| 20260505162856 | 25 | 262 | 4.8 | 20.9 | 0.00 | 0.00 | 0.00 | 30 | 1005.8 |
| 20260505162612 | 25 | 127 | 0.0 | 20.9 | 0.00 | 0.00 | 0.00 | 30 | 1005.7 |
| 20260505162336 | 25 | 181 | 0.0 | 20.9 | 0.00 | 0.00 | 0.00 | 30 | 1005.7 |
| 20260505162322 | 25 | 206 | 0.0 | 20.9 | 0.00 | 0.00 | 0.00 | 30 | 1006.0 |
| 20260505162307 | 25 | 203 | 1.6 | 20.9 | 0.00 | 0.00 | 0.00 | 29 | 1005.9 |
| 20260505161820 | 25 | 137 | 1.6 | 22.5 | 0.00 | 0.00 | 0.00 | 29 | 1005.6 |
| 20260505161802 | 25 | 174 | 0.0 | 22.5 | 0.00 | 0.00 | 0.00 | 29 | 1005.7 |
| 20260505161746 | 25 | 151 | 1.6 | 22.5 | 0.00 | 0.00 | 0.00 | 29 | 1005.5 |
| 20260505161508 | 25 | 172 | 0.0 | 22.5 | 0.00 | 0.00 | 0.00 | 29 | 1005.9 |
| 20260505161243 | 25 | 226 | 6.4 | 22.5 | 0.00 | 0.00 | 0.00 | 29 | 1005.9 |
| 20260505161227 | 25 | 168 | 0.0 | 22.5 | 0.00 | 0.00 | 0.00 | 29 | 1005.8 |
| 20260505160952 | 25 | 214 | 8.0 | 22.5 | 0.00 | 0.00 | 0.00 | 29 | 1005.9 |
| 20260505160929 | 25 | 227 | 3.2 | 16.1 | 0.00 | 0.00 | 0.00 | 28 | 1005.8 |
| 20260505160913 | 25 | 211 | 8.0 | 16.1 | 0.00 | 0.00 | 0.00 | 29 | 1005.9 |
| 20260505160633 | 25 | 194 | 3.2 | 12.9 | 0.00 | 0.00 | 0.00 | 28 | 1005.9 |
| 20260505160617 | 25 | 223 | 3.2 | 12.9 | 0.00 | 0.00 | 0.00 | 28 | 1005.8 |
| 20260505160551 | 25 | 225 | 1.6 | 22.5 | 0.00 | 0.00 | 0.00 | 28 | 1005.8 |
| 20260505160315 | 25 | 217 | 4.8 | 22.5 | 0.00 | 0.00 | 0.00 | 28 | 1005.8 |
| 20260505153116 | 26 | 226 | 9.7 | 27.4 | 0.00 | 0.00 | 0.00 | 26 | 1006.0 |
| 20260505153101 | 26 | 134 | 4.8 | 41.8 | 0.00 | 0.00 | 0.00 | 25 | 1006.2 |
| 20260505153045 | 26 | 192 | 1.6 | 41.8 | 0.00 | 0.00 | 0.00 | 25 | 1005.9 |
| 20260505152512 | 26 | 326 | 8.0 | 41.8 | 0.00 | 0.00 | 0.00 | 25 | 1006.2 |
| 20260505152505 | 26 | 215 | 4.8 | 41.8 | 0.00 | 0.00 | 0.00 | 25 | 1006.2 |
| 20260505152410 | 26 | 238 | 3.2 | 41.8 | 0.00 | 0.00 | 0.00 | 25 | 1006.0 |
| 20260505152305 | 26 | 180 | 6.4 | 41.8 | 0.00 | 0.00 | 0.00 | 25 | 1006.2 |
| 20260505152205 | 26 | 237 | 9.7 | 41.8 | 0.00 | 0.00 | 0.00 | 25 | 1005.7 |
| 20260505152105 | 26 | 216 | 17.7 | 41.8 | 0.00 | 0.00 | 0.00 | 25 | 1005.8 |
| 20260505152012 | 26 | 234 | 14.5 | 41.8 | 0.00 | 0.00 | 0.00 | 25 | 1005.9 |
| 20260505152005 | 26 | 244 | 24.1 | 41.8 | 0.00 | 0.00 | 0.00 | 25 | 1005.9 |
| 20260505151947 | 26 | 334 | 11.3 | 27.4 | 0.00 | 0.00 | 0.00 | 26 | 1005.7 |
| 20260505151938 | 26 | 30 | 11.3 | 27.4 | 0.00 | 0.00 | 0.00 | 25 | 1006.0 |
| 20260505151921 | 26 | 235 | 1.6 | 27.4 | 0.00 | 0.00 | 0.00 | 26 | 1005.9 |
| 20260505151906 | 26 | 212 | 3.2 | 27.4 | 0.00 | 0.00 | 0.00 | 26 | 1005.9 |
| 20260505151849 | 26 | 267 | 9.7 | 27.4 | 0.00 | 0.00 | 0.00 | 26 | 1005.9 |
| 20260505151622 | 26 | 243 | 8.0 | 27.4 | 0.00 | 0.00 | 0.00 | 26 | 1005.7 |
| 20260505151258 | 26 | 141 | 6.4 | 27.4 | 0.00 | 0.00 | 0.00 | 26 | 1006.0 |
| 20260505151158 | 26 | 119 | 0.0 | 27.4 | 0.00 | 0.00 | 0.00 | 26 | 1005.6 |
| 20260505151058 | 26 | 243 | 9.7 | 27.4 | 0.00 | 0.00 | 0.00 | 26 | 1005.8 |
| 20260505151006 | 26 | 328 | 11.3 | 24.1 | 0.00 | 0.00 | 0.00 | 26 | 1005.9 |
| 20260505150957 | 26 | 309 | 11.3 | 24.1 | 0.00 | 0.00 | 0.00 | 26 | 1005.9 |
| 20260505150857 | 26 | 135 | 1.6 | 24.1 | 0.00 | 0.00 | 0.00 | 26 | 1005.8 |
| 20260505150757 | 26 | 90 | 6.4 | 24.1 | 0.00 | 0.00 | 0.00 | 26 | 1005.9 |
| 20260505150657 | 26 | 239 | 6.4 | 24.1 | 0.00 | 0.00 | 0.00 | 26 | 1005.8 |
| 20260505150558 | 26 | 229 | 1.6 | 24.1 | 0.00 | 0.00 | 0.00 | 25 | 1005.9 |
| 20260505150505 | 26 | 225 | 14.5 | 24.1 | 0.00 | 0.00 | 0.00 | 26 | 1005.5 |
| 20260505150457 | 26 | 225 | 14.5 | 25.7 | 0.00 | 0.00 | 0.00 | 26 | 1005.5 |
| 20260505150357 | 26 | 253 | 1.6 | 25.7 | 0.00 | 0.00 | 0.00 | 26 | 1005.8 |
| 20260505150334 | 26 | 207 | 4.8 | 25.7 | 0.00 | 0.00 | 0.00 | 26 | 1005.7 |
| 20260505150318 | 26 | 209 | 4.8 | 27.4 | 0.00 | 0.00 | 0.00 | 26 | 1005.7 |
| 20260505140540 | 26 | 236 | 9.7 | 30.6 | 0.00 | 0.00 | 0.00 | 26 | 1006.4 |
| 20260505140440 | 26 | 341 | 9.7 | 38.6 | 0.00 | 0.00 | 0.00 | 26 | 1006.4 |
| 20260505140424 | 26 | 232 | 14.5 | 38.6 | 0.00 | 0.00 | 0.00 | 26 | 1006.3 |
| 20260505140410 | 26 | 235 | 11.3 | 38.6 | 0.00 | 0.00 | 0.00 | 26 | 1006.3 |
| 20260505140354 | 26 | 200 | 4.8 | 38.6 | 0.00 | 0.00 | 0.00 | 27 | 1006.3 |
| 20260505130224 | 26 | 205 | 1.6 | 30.6 | 0.00 | 0.00 | 0.00 | 31 | 1006.5 |
| 20260505130218 | 26 | 227 | 8.0 | 41.8 | 0.00 | 0.00 | 0.00 | 30 | 1006.6 |
| 20260505130202 | 26 | 147 | 6.4 | 41.8 | 0.00 | 0.00 | 0.00 | 29 | 1006.5 |
| 20260505130147 | 26 | 158 | 6.4 | 41.8 | 0.00 | 0.00 | 0.00 | 29 | 1006.7 |
| 20260505130132 | 26 | 5 | 4.8 | 41.8 | 0.00 | 0.00 | 0.00 | 31 | 1006.7 |
| 20260505130117 | 26 | 134 | 6.4 | 41.8 | 0.00 | 0.00 | 0.00 | 30 | 1006.7 |
| 20260505124905 | 26 | 180 | 12.9 | 25.7 | 0.00 | 0.00 | 0.00 | 29 | 1006.9 |
| 20260505124857 | 26 | 208 | 3.2 | 24.1 | 0.00 | 0.00 | 0.00 | 30 | 1006.8 |
| 20260505124842 | 27 | 201 | 1.6 | 33.8 | 0.00 | 0.00 | 0.00 | 31 | 1006.8 |
| 20260505124826 | 27 | 223 | 14.5 | 33.8 | 0.00 | 0.00 | 0.00 | 29 | 1006.8 |
| 20260505124550 | 27 | 209 | 1.6 | 33.8 | 0.00 | 0.00 | 0.00 | 29 | 1006.9 |
| 20260505124310 | 26 | 217 | 0.0 | 37.0 | 0.00 | 0.00 | 0.00 | 29 | 1006.8 |
| 20260505124208 | 26 | 187 | 0.0 | 37.0 | 0.00 | 0.00 | 0.00 | 30 | 1007.1 |
| 20260505124110 | 26 | 171 | 9.7 | 37.0 | 0.00 | 0.00 | 0.00 | 30 | 1006.8 |
| 20260505124010 | 26 | 251 | 9.7 | 37.0 | 0.00 | 0.00 | 0.00 | 29 | 1006.9 |
| 20260505123911 | 26 | 228 | 12.9 | 37.0 | 0.00 | 0.00 | 0.00 | 30 | 1007.0 |
| 20260505123829 | 26 | 262 | 4.8 | 37.0 | 0.00 | 0.00 | 0.00 | 30 | 1007.1 |
| 20260505123809 | 26 | 232 | 19.3 | 37.0 | 0.00 | 0.00 | 0.00 | 30 | 1007.1 |
| 20260505123709 | 26 | 61 | 1.6 | 37.0 | 0.00 | 0.00 | 0.00 | 29 | 1007.1 |
| 20260505123645 | 26 | 291 | 11.3 | 37.0 | 0.00 | 0.00 | 0.00 | 29 | 1006.8 |
| 20260505123629 | 26 | 306 | 3.2 | 37.0 | 0.00 | 0.00 | 0.00 | 29 | 1006.8 |
| 20260505123342 | 26 | 228 | 6.4 | 33.8 | 0.00 | 0.00 | 0.00 | 29 | 1006.8 |
| 20260505123309 | 26 | 266 | 9.7 | 33.8 | 0.00 | 0.00 | 0.00 | 29 | 1006.8 |
| 20260505123209 | 26 | 216 | 3.2 | 33.8 | 0.00 | 0.00 | 0.00 | 30 | 1007.1 |
| 20260505123109 | 26 | 164 | 11.3 | 33.8 | 0.00 | 0.00 | 0.00 | 29 | 1006.9 |
| 20260505123004 | 26 | 172 | 12.9 | 30.6 | 0.00 | 0.00 | 0.00 | 29 | 1007.0 |
| 20260505122918 | 26 | 194 | 6.4 | 33.8 | 0.00 | 0.00 | 0.00 | 28 | 1006.9 |
| 20260505122911 | 26 | 220 | 16.1 | 30.6 | 0.00 | 0.00 | 0.00 | 29 | 1006.9 |
| 20260505122857 | 26 | 195 | 8.0 | 30.6 | 0.00 | 0.00 | 0.00 | 29 | 1006.9 |
| 20260505122849 | 26 | 90 | 4.8 | 30.6 | 0.00 | 0.00 | 0.00 | 29 | 1006.9 |
| 20260505122833 | 26 | 228 | 8.0 | 33.8 | 0.00 | 0.00 | 0.00 | 30 | 1007.2 |
| 20260505122609 | 26 | 205 | 8.0 | 33.8 | 0.00 | 0.00 | 0.00 | 29 | 1006.9 |
| 20260505122553 | 26 | 181 | 0.0 | 33.8 | 0.00 | 0.00 | 0.00 | 29 | 1007.1 |
| 20260505122538 | 26 | 232 | 6.4 | 33.8 | 0.00 | 0.00 | 0.00 | 29 | 1007.0 |
| 20260505122259 | 26 | 219 | 14.5 | 33.8 | 0.00 | 0.00 | 0.00 | 29 | 1006.9 |
| 20260505122158 | 26 | 47 | 1.6 | 33.8 | 0.00 | 0.00 | 0.00 | 30 | 1007.3 |
| 20260505122058 | 26 | 217 | 20.9 | 33.8 | 0.00 | 0.00 | 0.00 | 28 | 1007.0 |
| 20260505121958 | 26 | 165 | 1.6 | 33.8 | 0.00 | 0.00 | 0.00 | 29 | 1007.0 |
| 20260505121859 | 25 | 180 | 1.6 | 33.8 | 0.00 | 0.00 | 0.00 | 30 | 1006.9 |
| 20260505121832 | 25 | 183 | 14.5 | 33.8 | 0.00 | 0.00 | 0.00 | 29 | 1007.1 |
| 20260505121758 | 25 | 219 | 12.9 | 33.8 | 0.00 | 0.00 | 0.00 | 29 | 1007.1 |
| 20260505121723 | 25 | 72 | 8.0 | 27.4 | 0.00 | 0.00 | 0.00 | 29 | 1007.2 |
| 20260505121708 | 25 | 196 | 1.6 | 27.4 | 0.00 | 0.00 | 0.00 | 30 | 1007.1 |
| 20260505121652 | 25 | 197 | 9.7 | 27.4 | 0.00 | 0.00 | 0.00 | 29 | 1007.2 |
| 20260505121637 | 25 | 172 | 1.6 | 27.4 | 0.00 | 0.00 | 0.00 | 31 | 1007.3 |
| 20260505121622 | 25 | 182 | 3.2 | 27.4 | 0.00 | 0.00 | 0.00 | 30 | 1007.0 |
| 20260505121106 | 25 | 195 | 1.6 | 30.6 | 0.00 | 0.00 | 0.00 | 31 | 1007.4 |
| 20260505121051 | 25 | 199 | 8.0 | 30.6 | 0.00 | 0.00 | 0.00 | 30 | 1007.3 |
| 20260505121037 | 25 | 153 | 0.0 | 30.6 | 0.00 | 0.00 | 0.00 | 30 | 1007.3 |
| 20260505121023 | 25 | 145 | 1.6 | 30.6 | 0.00 | 0.00 | 0.00 | 30 | 1007.5 |
| 20260505121015 | 25 | 191 | 3.2 | 30.6 | 0.00 | 0.00 | 0.00 | 30 | 1007.5 |
| 20260505120738 | 25 | 224 | 9.7 | 30.6 | 0.00 | 0.00 | 0.00 | 30 | 1007.4 |
| 20260505120503 | 25 | 181 | 9.7 | 30.6 | 0.00 | 0.00 | 0.00 | 30 | 1007.4 |
| 20260505120449 | 25 | 233 | 8.0 | 30.6 | 0.00 | 0.00 | 0.00 | 30 | 1007.4 |
| 20260505120134 | 25 | 126 | 17.7 | 30.6 | 0.00 | 0.00 | 0.00 | 30 | 1007.4 |
| 20260505120033 | 25 | 107 | 4.8 | 22.5 | 0.00 | 0.00 | 0.00 | 29 | 1007.4 |
| 20260505115934 | 25 | 189 | 6.4 | 22.5 | 0.00 | 0.00 | 0.00 | 31 | 1007.3 |
| 20260505115833 | 25 | 196 | 0.0 | 24.1 | 0.00 | 0.00 | 0.00 | 30 | 1007.2 |
| 20260505115755 | 25 | 208 | 16.1 | 24.1 | 0.00 | 0.00 | 0.00 | 30 | 1007.2 |
| 20260505115734 | 25 | 208 | 16.1 | 24.1 | 0.00 | 0.00 | 0.00 | 29 | 1007.5 |
| 20260505115633 | 25 | 166 | 14.5 | 24.1 | 0.00 | 0.00 | 0.00 | 29 | 1007.5 |
| 20260505115533 | 25 | 210 | 11.3 | 24.1 | 0.00 | 0.00 | 0.00 | 30 | 1007.3 |
| 20260505115433 | 25 | 138 | 6.4 | 24.1 | 0.00 | 0.00 | 0.00 | 29 | 1007.2 |
| 20260505115335 | 25 | 174 | 0.0 | 24.1 | 0.00 | 0.00 | 0.00 | 29 | 1007.1 |
| 20260505115249 | 25 | 184 | 0.0 | 24.1 | 0.00 | 0.00 | 0.00 | 29 | 1007.1 |
| 20260505115229 | 25 | 178 | 1.6 | 24.1 | 0.00 | 0.00 | 0.00 | 28 | 1007.3 |
| 20260505115129 | 25 | 228 | 9.7 | 24.1 | 0.00 | 0.00 | 0.00 | 29 | 1007.1 |
| 20260505115028 | 25 | 259 | 6.4 | 24.1 | 0.00 | 0.00 | 0.00 | 30 | 1007.3 |
| 20260505114927 | 25 | 207 | 3.2 | 37.0 | 0.00 | 0.00 | 0.00 | 29 | 1007.2 |
| 20260505114824 | 25 | 185 | 4.8 | 37.0 | 0.00 | 0.00 | 0.00 | 28 | 1007.3 |
| 20260505114758 | 25 | 78 | 4.8 | 37.0 | 0.00 | 0.00 | 0.00 | 29 | 1007.3 |
| 20260505114750 | 25 | 275 | 9.7 | 37.0 | 0.00 | 0.00 | 0.00 | 29 | 1007.3 |
| 20260505114734 | 25 | 236 | 8.0 | 37.0 | 0.00 | 0.00 | 0.00 | 29 | 1007.5 |
| 20260505114719 | 25 | 217 | 9.7 | 37.0 | 0.00 | 0.00 | 0.00 | 28 | 1007.7 |
| 20260505114703 | 25 | 234 | 6.4 | 37.0 | 0.00 | 0.00 | 0.00 | 28 | 1007.5 |
| 20260505114429 | 25 | 153 | 1.6 | 37.0 | 0.00 | 0.00 | 0.00 | 28 | 1007.4 |
| 20260505114111 | 25 | 232 | 1.6 | 37.0 | 0.00 | 0.00 | 0.00 | 28 | 1007.3 |
| 20260505114011 | 25 | 218 | 3.2 | 37.0 | 0.00 | 0.00 | 0.00 | 29 | 1007.2 |
| 20260505113911 | 25 | 207 | 9.7 | 37.0 | 0.00 | 0.00 | 0.00 | 28 | 1007.3 |
| 20260505113811 | 25 | 219 | 24.1 | 37.0 | 0.00 | 0.00 | 0.00 | 28 | 1007.5 |
| 20260505113744 | 25 | 219 | 24.1 | 37.0 | 0.00 | 0.00 | 0.00 | 29 | 1007.5 |
| 20260505113659 | 25 | 253 | 11.3 | 35.4 | 0.00 | 0.00 | 0.00 | 29 | 1007.4 |
| 20260505113557 | 25 | 159 | 6.4 | 35.4 | 0.00 | 0.00 | 0.00 | 29 | 1007.4 |
| 20260505113459 | 25 | 289 | 6.4 | 35.4 | 0.00 | 0.00 | 0.00 | 29 | 1007.4 |
| 20260505113359 | 25 | 199 | 1.6 | 35.4 | 0.00 | 0.00 | 0.00 | 30 | 1007.5 |
| 20260505113259 | 26 | 231 | 27.4 | 35.4 | 0.00 | 0.00 | 0.00 | 28 | 1007.5 |
| 20260505113233 | 26 | 187 | 16.1 | 25.7 | 0.00 | 0.00 | 0.00 | 28 | 1007.5 |
| 20260505113157 | 26 | 213 | 4.8 | 25.7 | 0.00 | 0.00 | 0.00 | 29 | 1007.5 |
| 20260505113127 | 26 | 252 | 14.5 | 25.7 | 0.00 | 0.00 | 0.00 | 28 | 1007.4 |
| 20260505113111 | 26 | 303 | 9.7 | 30.6 | 0.00 | 0.00 | 0.00 | 28 | 1007.5 |
| 20260505112751 | 26 | 255 | 8.0 | 30.6 | 0.00 | 0.00 | 0.00 | 29 | 1007.5 |
| 20260505112737 | 26 | 276 | 4.8 | 30.6 | 0.00 | 0.00 | 0.00 | 29 | 1007.5 |
| 20260505112652 | 26 | 220 | 6.4 | 30.6 | 0.00 | 0.00 | 0.00 | 31 | 1007.3 |
| 20260505112552 | 26 | 241 | 6.4 | 30.6 | 0.00 | 0.00 | 0.00 | 31 | 1007.1 |
| 20260505112530 | 26 | 164 | 0.0 | 30.6 | 0.00 | 0.00 | 0.00 | 31 | 1007.5 |
| 20260505112514 | 26 | 165 | 0.0 | 30.6 | 0.00 | 0.00 | 0.00 | 31 | 1007.6 |
| 20260505112245 | 26 | 190 | 3.2 | 29.0 | 0.00 | 0.00 | 0.00 | 31 | 1007.7 |
| 20260505112238 | 25 | 199 | 0.0 | 30.6 | 0.00 | 0.00 | 0.00 | 32 | 1007.5 |
| 20260505112225 | 25 | 196 | 0.0 | 30.6 | 0.00 | 0.00 | 0.00 | 32 | 1007.3 |
| 20260505112209 | 25 | 200 | 8.0 | 30.6 | 0.00 | 0.00 | 0.00 | 31 | 1007.6 |
| 20260505112154 | 25 | 197 | 1.6 | 29.0 | 0.00 | 0.00 | 0.00 | 32 | 1007.6 |
| 20260505112137 | 25 | 184 | 17.7 | 29.0 | 0.00 | 0.00 | 0.00 | 31 | 1007.4 |
| 20260505112121 | 26 | 227 | 9.7 | 29.0 | 0.00 | 0.00 | 0.00 | 31 | 1007.7 |
| 20260505112109 | 26 | 219 | 16.1 | 29.0 | 0.00 | 0.00 | 0.00 | 31 | 1007.7 |
| 20260505112059 | 26 | 174 | 12.9 | 29.0 | 0.00 | 0.00 | 0.00 | 31 | 1007.6 |
| 20260505112044 | 26 | 241 | 4.8 | 29.0 | 0.00 | 0.00 | 0.00 | 31 | 1007.5 |
| 20260505112028 | 26 | 213 | 3.2 | 29.0 | 0.00 | 0.00 | 0.00 | 30 | 1007.5 |
| 20260505111753 | 26 | 190 | 3.2 | 29.0 | 0.00 | 0.00 | 0.00 | 30 | 1007.7 |
| 20260505111303 | 25 | 233 | 9.7 | 27.4 | 0.00 | 0.00 | 0.00 | 31 | 1007.7 |
| 20260505111248 | 25 | 219 | 8.0 | 33.8 | 0.00 | 0.00 | 0.00 | 31 | 1007.3 |
| 20260505111232 | 25 | 185 | 3.2 | 33.8 | 0.00 | 0.00 | 0.00 | 31 | 1007.5 |
| 20260505111000 | 25 | 193 | 4.8 | 33.8 | 0.00 | 0.00 | 0.00 | 30 | 1007.7 |
| 20260505110729 | 25 | 198 | 9.7 | 33.8 | 0.00 | 0.00 | 0.00 | 31 | 1007.6 |
| 20260505110713 | 25 | 171 | 16.1 | 33.8 | 0.00 | 0.00 | 0.00 | 30 | 1007.5 |
| 20260505110659 | 25 | 187 | 6.4 | 33.8 | 0.00 | 0.00 | 0.00 | 31 | 1007.5 |
| 20260505110426 | 25 | 199 | 6.4 | 33.8 | 0.00 | 0.00 | 0.00 | 30 | 1007.9 |
| 20260505110154 | 25 | 218 | 9.7 | 29.0 | 0.00 | 0.00 | 0.00 | 30 | 1007.6 |
| 20260505102052 | 25 | 239 | 6.4 | 35.4 | 0.00 | 0.00 | 0.00 | 32 | 1008.0 |
| 20260505102029 | 25 | 25 | 16.1 | 35.4 | 0.00 | 0.00 | 0.00 | 32 | 1007.9 |
| 20260505101531 | 25 | 205 | 12.9 | 43.5 | 0.00 | 0.00 | 0.00 | 32 | 1008.0 |
| 20260505101515 | 25 | 156 | 0.0 | 43.5 | 0.00 | 0.00 | 0.00 | 32 | 1007.9 |
| 20260505101247 | 24 | 239 | 11.3 | 43.5 | 0.00 | 0.00 | 0.00 | 31 | 1008.3 |
| 20260505100928 | 24 | 158 | 3.2 | 43.5 | 0.00 | 0.00 | 0.00 | 31 | 1008.1 |
| 20260505100824 | 24 | 193 | 3.2 | 43.5 | 0.00 | 0.00 | 0.00 | 31 | 1008.3 |
| 20260505100724 | 24 | 329 | 6.4 | 43.5 | 0.00 | 0.00 | 0.00 | 31 | 1008.3 |
| 20260505100705 | 24 | 270 | 8.0 | 43.5 | 0.00 | 0.00 | 0.00 | 31 | 1008.1 |
| 20260505100658 | 24 | 187 | 4.8 | 43.5 | 0.00 | 0.00 | 0.00 | 31 | 1008.1 |
| 20260505100643 | 24 | 207 | 8.0 | 43.5 | 0.00 | 0.00 | 0.00 | 31 | 1008.3 |
| 20260505100627 | 25 | 212 | 16.1 | 43.5 | 0.00 | 0.00 | 0.00 | 30 | 1008.3 |
| 20260505100351 | 24 | 219 | 9.7 | 43.5 | 0.00 | 0.00 | 0.00 | 30 | 1008.3 |
| 20260505100335 | 24 | 330 | 8.0 | 43.5 | 0.00 | 0.00 | 0.00 | 31 | 1007.9 |
| 20260505100022 | 24 | 210 | 14.5 | 43.5 | 0.00 | 0.00 | 0.00 | 30 | 1008.2 |
| 20260505095957 | 24 | 80 | 6.4 | 43.5 | 0.00 | 0.00 | 0.00 | 30 | 1007.9 |
| 20260505095941 | 24 | 106 | 9.7 | 35.4 | 0.00 | 0.00 | 0.00 | 31 | 1008.1 |
| 20260505095703 | 25 | 182 | 14.5 | 35.4 | 0.00 | 0.00 | 0.00 | 31 | 1008.0 |
| 20260505095656 | 25 | 359 | 4.8 | 35.4 | 0.00 | 0.00 | 0.00 | 30 | 1008.0 |
| 20260505095641 | 25 | 227 | 16.1 | 35.4 | 0.00 | 0.00 | 0.00 | 30 | 1008.0 |
| 20260505095318 | 25 | 195 | 14.5 | 22.5 | 0.00 | 0.00 | 0.00 | 31 | 1008.2 |
| 20260505095216 | 25 | 260 | 9.7 | 22.5 | 0.00 | 0.00 | 0.00 | 30 | 1008.2 |
| 20260505095125 | 25 | 208 | 9.7 | 22.5 | 0.00 | 0.00 | 0.00 | 32 | 1008.2 |
| 20260505095117 | 25 | 211 | 11.3 | 22.5 | 0.00 | 0.00 | 0.00 | 32 | 1008.2 |
| 20260505095018 | 25 | 190 | 3.2 | 22.5 | 0.00 | 0.00 | 0.00 | 32 | 1008.3 |
| 20260505094958 | 25 | 209 | 6.4 | 22.5 | 0.00 | 0.00 | 0.00 | 31 | 1008.1 |
| 20260505094943 | 25 | 160 | 1.6 | 30.6 | 0.00 | 0.00 | 0.00 | 33 | 1008.2 |
| 20260505094706 | 25 | 196 | 4.8 | 30.6 | 0.00 | 0.00 | 0.00 | 31 | 1007.9 |
| 20260505094659 | 25 | 196 | 4.8 | 30.6 | 0.00 | 0.00 | 0.00 | 32 | 1007.9 |
| 20260505094643 | 25 | 207 | 9.7 | 30.6 | 0.00 | 0.00 | 0.00 | 32 | 1008.3 |
| 20260505094624 | 25 | 195 | 6.4 | 30.6 | 0.00 | 0.00 | 0.00 | 32 | 1008.4 |
| 20260505094347 | 25 | 216 | 3.2 | 30.6 | 0.00 | 0.00 | 0.00 | 31 | 1008.2 |
| 20260505094328 | 25 | 221 | 9.7 | 30.6 | 0.00 | 0.00 | 0.00 | 31 | 1008.3 |
| 20260505094017 | 25 | 91 | 9.7 | 30.6 | 0.00 | 0.00 | 0.00 | 31 | 1008.2 |
| 20260505093915 | 25 | 193 | 11.3 | 30.6 | 0.00 | 0.00 | 0.00 | 31 | 1008.0 |
| 20260505093804 | 25 | 220 | 11.3 | 27.4 | 0.00 | 0.00 | 0.00 | 31 | 1008.1 |
| 20260505093745 | 25 | 188 | 14.5 | 27.4 | 0.00 | 0.00 | 0.00 | 32 | 1008.3 |
| 20260505093729 | 25 | 199 | 3.2 | 27.4 | 0.00 | 0.00 | 0.00 | 32 | 1008.2 |
| 20260505093721 | 25 | 165 | 17.7 | 27.4 | 0.00 | 0.00 | 0.00 | 32 | 1008.2 |
| 20260505093357 | 25 | 274 | 4.8 | 35.4 | 0.00 | 0.00 | 0.00 | 33 | 1008.3 |
| 20260505093258 | 25 | 230 | 6.4 | 35.4 | 0.00 | 0.00 | 0.00 | 35 | 1008.3 |
| 20260505093212 | 24 | 43 | 3.2 | 35.4 | 0.00 | 0.00 | 0.00 | 35 | 1008.3 |
| 20260505093157 | 24 | 200 | 0.0 | 35.4 | 0.00 | 0.00 | 0.00 | 35 | 1008.1 |
| 20260505093147 | 24 | 165 | 0.0 | 35.4 | 0.00 | 0.00 | 0.00 | 35 | 1008.1 |
| 20260505093131 | 24 | 211 | 6.4 | 35.4 | 0.00 | 0.00 | 0.00 | 33 | 1008.0 |
| 20260505093115 | 24 | 203 | 9.7 | 35.4 | 0.00 | 0.00 | 0.00 | 33 | 1008.3 |
| 20260505092837 | 25 | 279 | 12.9 | 35.4 | 0.00 | 0.00 | 0.00 | 33 | 1008.2 |
| 20260505092822 | 25 | 213 | 14.5 | 37.0 | 0.00 | 0.00 | 0.00 | 33 | 1008.2 |
| 20260505092554 | 24 | 199 | 8.0 | 38.6 | 0.00 | 0.00 | 0.00 | 33 | 1008.3 |
| 20260505092234 | 24 | 223 | 3.2 | 38.6 | 0.00 | 0.00 | 0.00 | 35 | 1008.3 |
| 20260505092133 | 24 | 178 | 9.7 | 38.6 | 0.00 | 0.00 | 0.00 | 33 | 1008.2 |
| 20260505092101 | 24 | 227 | 20.9 | 38.6 | 0.00 | 0.00 | 0.00 | 35 | 1008.2 |
| 20260505092029 | 24 | 199 | 3.2 | 38.6 | 0.00 | 0.00 | 0.00 | 33 | 1008.5 |
| 20260505092003 | 24 | 165 | 8.0 | 38.6 | 0.00 | 0.00 | 0.00 | 33 | 1008.3 |
| 20260505091947 | 24 | 222 | 8.0 | 38.6 | 0.00 | 0.00 | 0.00 | 35 | 1008.3 |
| 20260505091703 | 24 | 227 | 12.9 | 38.6 | 0.00 | 0.00 | 0.00 | 32 | 1008.4 |
| 20260505091650 | 24 | 199 | 14.5 | 38.6 | 0.00 | 0.00 | 0.00 | 32 | 1008.4 |
| 20260505091641 | 24 | 217 | 16.1 | 35.4 | 0.00 | 0.00 | 0.00 | 33 | 1008.6 |
| 20260505091321 | 24 | 140 | 1.6 | 35.4 | 0.00 | 0.00 | 0.00 | 35 | 1008.3 |
| 20260505091220 | 24 | 233 | 14.5 | 35.4 | 0.00 | 0.00 | 0.00 | 35 | 1008.2 |
| 20260505091149 | 24 | 58 | 16.1 | 37.0 | 0.00 | 0.00 | 0.00 | 35 | 1008.3 |
| 20260505091131 | 24 | 148 | 17.7 | 37.0 | 0.00 | 0.00 | 0.00 | 36 | 1008.3 |
| 20260505091122 | 24 | 196 | 19.3 | 37.0 | 0.00 | 0.00 | 0.00 | 35 | 1008.3 |
| 20260505091107 | 24 | 54 | 3.2 | 56.3 | 0.00 | 0.00 | 0.00 | 36 | 1008.4 |
| 20260505091050 | 25 | 158 | 3.2 | 56.3 | 0.00 | 0.00 | 0.00 | 35 | 1008.4 |
| 20260505091035 | 25 | 135 | 9.7 | 56.3 | 0.00 | 0.00 | 0.00 | 35 | 1008.5 |
| 20260505090801 | 24 | 174 | 6.4 | 56.3 | 0.00 | 0.00 | 0.00 | 35 | 1008.4 |
| 20260505090417 | 24 | 187 | 6.4 | 56.3 | 0.00 | 0.00 | 0.00 | 35 | 1008.6 |
| 20260505090402 | 25 | 160 | 9.7 | 56.3 | 0.00 | 0.00 | 0.00 | 35 | 1008.4 |
| 20260505090353 | 24 | 212 | 17.7 | 56.3 | 0.00 | 0.00 | 0.00 | 33 | 1008.6 |
| 20260505090335 | 25 | 211 | 24.1 | 56.3 | 0.00 | 0.00 | 0.00 | 33 | 1008.4 |
| 20260505090319 | 25 | 199 | 19.3 | 56.3 | 0.00 | 0.00 | 0.00 | 35 | 1008.4 |
| 20260505090016 | 25 | 215 | 19.3 | 30.6 | 0.00 | 0.00 | 0.00 | 35 | 1008.5 |
| 20260505085932 | 24 | 228 | 6.4 | 25.7 | 0.00 | 0.00 | 0.00 | 38 | 1008.5 |
| 20260505085915 | 24 | 101 | 11.3 | 25.7 | 0.00 | 0.00 | 0.00 | 37 | 1008.5 |
| 20260505085553 | 24 | 209 | 4.8 | 24.1 | 0.00 | 0.00 | 0.00 | 38 | 1008.5 |
| 20260505085443 | 24 | 217 | 6.4 | 24.1 | 0.00 | 0.00 | 0.00 | 38 | 1008.4 |
| 20260505085342 | 24 | 214 | 8.0 | 24.1 | 0.00 | 0.00 | 0.00 | 39 | 1008.7 |
| 20260505085241 | 24 | 135 | 3.2 | 24.1 | 0.00 | 0.00 | 0.00 | 39 | 1008.5 |
| 20260505085143 | 24 | 146 | 8.0 | 24.1 | 0.00 | 0.00 | 0.00 | 39 | 1008.4 |
| 20260505085041 | 24 | 226 | 17.7 | 24.1 | 0.00 | 0.00 | 0.00 | 38 | 1008.5 |
| 20260505084725 | 23 | 222 | 14.5 | 41.8 | 0.00 | 0.00 | 0.00 | 38 | 1008.7 |
| 20260505084708 | 23 | 225 | 8.0 | 41.8 | 0.00 | 0.00 | 0.00 | 39 | 1008.6 |
| 20260505084651 | 23 | 297 | 11.3 | 41.8 | 0.00 | 0.00 | 0.00 | 39 | 1008.8 |
| 20260505084644 | 23 | 213 | 24.1 | 41.8 | 0.00 | 0.00 | 0.00 | 39 | 1008.8 |
| 20260505084322 | 23 | 217 | 14.5 | 20.9 | 0.00 | 0.00 | 0.00 | 40 | 1008.7 |
| 20260505084305 | 23 | 157 | 8.0 | 20.9 | 0.00 | 0.00 | 0.00 | 41 | 1008.6 |
| 20260505084256 | 23 | 204 | 8.0 | 20.9 | 0.00 | 0.00 | 0.00 | 41 | 1008.8 |
| 20260505084240 | 23 | 72 | 6.4 | 20.9 | 0.00 | 0.00 | 0.00 | 41 | 1008.6 |
| 20260505084012 | 23 | 144 | 6.4 | 20.9 | 0.00 | 0.00 | 0.00 | 41 | 1008.6 |
| 20260505083912 | 23 | 190 | 3.2 | 20.9 | 0.00 | 0.00 | 0.00 | 41 | 1008.7 |
| 20260505083811 | 23 | 145 | 3.2 | 22.5 | 0.00 | 0.00 | 0.00 | 43 | 1008.8 |
| 20260505083711 | 23 | 185 | 0.0 | 22.5 | 0.00 | 0.00 | 0.00 | 43 | 1008.7 |
| 20260505083611 | 23 | 205 | 1.6 | 22.5 | 0.00 | 0.00 | 0.00 | 43 | 1008.8 |
| 20260505083520 | 23 | 189 | 9.7 | 22.5 | 0.00 | 0.00 | 0.00 | 43 | 1008.8 |
| 20260505083513 | 23 | 255 | 9.7 | 22.5 | 0.00 | 0.00 | 0.00 | 43 | 1008.8 |
| 20260505083406 | 23 | 146 | 3.2 | 22.5 | 0.00 | 0.00 | 0.00 | 43 | 1008.9 |
| 20260505083300 | 23 | 220 | 3.2 | 22.5 | 0.00 | 0.00 | 0.00 | 42 | 1008.6 |
| 20260505083200 | 23 | 73 | 6.4 | 22.5 | 0.00 | 0.00 | 0.00 | 43 | 1008.8 |
| 20260505083058 | 23 | 188 | 6.4 | 22.5 | 0.00 | 0.00 | 0.00 | 43 | 1008.9 |
| 20260505083018 | 23 | 206 | 8.0 | 22.5 | 0.00 | 0.00 | 0.00 | 43 | 1008.8 |
| 20260505082958 | 23 | 203 | 8.0 | 22.5 | 0.00 | 0.00 | 0.00 | 43 | 1008.8 |
| 20260505082847 | 23 | 217 | 19.3 | 22.5 | 0.00 | 0.00 | 0.00 | 43 | 1009.0 |
| 20260505082741 | 23 | 139 | 4.8 | 22.5 | 0.00 | 0.00 | 0.00 | 43 | 1008.7 |
| 20260505082701 | 23 | 179 | 12.9 | 22.5 | 0.00 | 0.00 | 0.00 | 42 | 1009.0 |
| 20260505082639 | 23 | 26 | 3.2 | 22.5 | 0.00 | 0.00 | 0.00 | 43 | 1008.9 |
| 20260505082317 | 23 | 187 | 3.2 | 22.5 | 0.00 | 0.00 | 0.00 | 43 | 1008.9 |
| 20260505082218 | 23 | 210 | 6.4 | 22.5 | 0.00 | 0.00 | 0.00 | 42 | 1008.9 |
| 20260505082117 | 23 | 213 | 16.1 | 22.5 | 0.00 | 0.00 | 0.00 | 42 | 1008.8 |
| 20260505082017 | 23 | 151 | 3.2 | 22.5 | 0.00 | 0.00 | 0.00 | 42 | 1009.1 |
| 20260505081916 | 22 | 243 | 4.8 | 25.7 | 0.00 | 0.00 | 0.00 | 43 | 1008.9 |
| 20260505081818 | 22 | 221 | 9.7 | 29.0 | 0.00 | 0.00 | 0.00 | 42 | 1009.1 |
| 20260505081717 | 22 | 198 | 8.0 | 29.0 | 0.00 | 0.00 | 0.00 | 43 | 1008.9 |
| 20260505081701 | 22 | 146 | 6.4 | 29.0 | 0.00 | 0.00 | 0.00 | 42 | 1008.7 |
| 20260505081639 | 23 | 191 | 8.0 | 29.0 | 0.00 | 0.00 | 0.00 | 42 | 1009.0 |
| 20260505081317 | 23 | 135 | 1.6 | 29.0 | 0.00 | 0.00 | 0.00 | 43 | 1009.1 |
| 20260505081217 | 23 | 206 | 11.3 | 29.0 | 0.00 | 0.00 | 0.00 | 42 | 1009.3 |
| 20260505081118 | 23 | 206 | 1.6 | 29.0 | 0.00 | 0.00 | 0.00 | 42 | 1009.1 |
| 20260505081052 | 23 | 269 | 11.3 | 29.0 | 0.00 | 0.00 | 0.00 | 41 | 1009.0 |
| 20260505081036 | 23 | 243 | 14.5 | 20.9 | 0.00 | 0.00 | 0.00 | 41 | 1009.1 |
| 20260505081020 | 23 | 193 | 9.7 | 16.1 | 0.00 | 0.00 | 0.00 | 42 | 1009.0 |
| 20260505081004 | 23 | 202 | 4.8 | 16.1 | 0.00 | 0.00 | 0.00 | 42 | 1009.2 |
| 20260505080948 | 23 | 186 | 3.2 | 16.1 | 0.00 | 0.00 | 0.00 | 42 | 1009.1 |
| 20260505080930 | 23 | 198 | 8.0 | 16.1 | 0.00 | 0.00 | 0.00 | 42 | 1009.0 |
| 20260505080704 | 23 | 208 | 4.8 | 16.1 | 0.00 | 0.00 | 0.00 | 42 | 1009.2 |
| 20260505080647 | 23 | 200 | 4.8 | 12.9 | 0.00 | 0.00 | 0.00 | 41 | 1009.2 |
| 20260505080630 | 23 | 203 | 3.2 | 12.9 | 0.00 | 0.00 | 0.00 | 42 | 1009.1 |
| 20260505080354 | 23 | 91 | 1.6 | 12.9 | 0.00 | 0.00 | 0.00 | 41 | 1009.1 |
| 20260505080128 | 23 | 56 | 1.6 | 12.9 | 0.00 | 0.00 | 0.00 | 42 | 1009.1 |
| 20260505075547 | 23 | 180 | 0.0 | 12.9 | 0.00 | 0.00 | 0.00 | 41 | 1009.3 |
| 20260505075453 | 23 | 86 | 3.2 | 12.9 | 0.00 | 0.00 | 0.00 | 41 | 1009.3 |
| 20260505075446 | 23 | 96 | 6.4 | 12.9 | 0.00 | 0.00 | 0.00 | 41 | 1009.3 |
| 20260505075425 | 23 | 203 | 4.8 | 25.7 | 0.00 | 0.00 | 0.00 | 42 | 1009.4 |
| 20260505075415 | 23 | 137 | 3.2 | 14.5 | 0.00 | 0.00 | 0.00 | 41 | 1009.4 |
| 20260505075358 | 23 | 90 | 1.6 | 24.1 | 0.00 | 0.00 | 0.00 | 41 | 1009.3 |
| 20260505075342 | 23 | 66 | 1.6 | 24.1 | 0.00 | 0.00 | 0.00 | 41 | 1009.0 |
| 20260505075324 | 23 | 191 | 1.6 | 25.7 | 0.00 | 0.00 | 0.00 | 41 | 1009.5 |
| 20260505075056 | 23 | 203 | 4.8 | 25.7 | 0.00 | 0.00 | 0.00 | 43 | 1009.4 |
| 20260505075039 | 22 | 212 | 0.0 | 25.7 | 0.00 | 0.00 | 0.00 | 44 | 1009.2 |
| 20260505075024 | 22 | 141 | 0.0 | 25.7 | 0.00 | 0.00 | 0.00 | 42 | 1009.5 |
| 20260505074448 | 22 | 231 | 8.0 | 25.7 | 0.00 | 0.00 | 0.00 | 42 | 1009.5 |
| 20260505074442 | 22 | 229 | 9.7 | 25.7 | 0.00 | 0.00 | 0.00 | 42 | 1009.5 |
| 20260505074342 | 22 | 219 | 12.9 | 25.7 | 0.00 | 0.00 | 0.00 | 41 | 1009.4 |
| 20260505074246 | 22 | 48 | 8.0 | 20.9 | 0.00 | 0.00 | 0.00 | 42 | 1009.5 |
| 20260505074240 | 22 | 264 | 9.7 | 25.7 | 0.00 | 0.00 | 0.00 | 41 | 1009.5 |
| 20260505074224 | 22 | 203 | 12.9 | 25.7 | 0.00 | 0.00 | 0.00 | 41 | 1009.4 |
| 20260505074208 | 22 | 182 | 3.2 | 20.9 | 0.00 | 0.00 | 0.00 | 41 | 1009.5 |
| 20260505073939 | 22 | 242 | 8.0 | 20.9 | 0.00 | 0.00 | 0.00 | 42 | 1009.5 |
| 20260505073840 | 22 | 131 | 1.6 | 20.9 | 0.00 | 0.00 | 0.00 | 43 | 1009.4 |
| 20260505073739 | 22 | 172 | 6.4 | 20.9 | 0.00 | 0.00 | 0.00 | 42 | 1009.5 |
| 20260505073639 | 22 | 59 | 3.2 | 20.9 | 0.00 | 0.00 | 0.00 | 42 | 1009.3 |
| 20260505073540 | 22 | 203 | 1.6 | 20.9 | 0.00 | 0.00 | 0.00 | 42 | 1009.3 |
| 20260505073447 | 22 | 179 | 4.8 | 20.9 | 0.00 | 0.00 | 0.00 | 42 | 1009.4 |
| 20260505073440 | 22 | 175 | 1.6 | 20.9 | 0.00 | 0.00 | 0.00 | 42 | 1009.4 |
| 20260505073343 | 22 | 102 | 0.0 | 20.9 | 0.00 | 0.00 | 0.00 | 42 | 1009.5 |
| 20260505073318 | 22 | 232 | 8.0 | 20.9 | 0.00 | 0.00 | 0.00 | 42 | 1009.3 |
| 20260505073300 | 22 | 182 | 0.0 | 20.9 | 0.00 | 0.00 | 0.00 | 42 | 1009.4 |
| 20260505073239 | 22 | 201 | 6.4 | 20.9 | 0.00 | 0.00 | 0.00 | 42 | 1009.6 |
| 20260505073222 | 22 | 198 | 9.7 | 17.7 | 0.00 | 0.00 | 0.00 | 41 | 1009.6 |
| 20260505073215 | 22 | 232 | 6.4 | 17.7 | 0.00 | 0.00 | 0.00 | 41 | 1009.4 |
| 20260505072636 | 22 | 259 | 3.2 | 17.7 | 0.00 | 0.00 | 0.00 | 42 | 1009.6 |
| 20260505072544 | 22 | 195 | 9.7 | 17.7 | 0.00 | 0.00 | 0.00 | 42 | 1009.7 |
| 20260505072526 | 22 | 183 | 8.0 | 16.1 | 0.00 | 0.00 | 0.00 | 41 | 1009.5 |
| 20260505072517 | 22 | 206 | 11.3 | 17.7 | 0.00 | 0.00 | 0.00 | 42 | 1009.7 |
| 20260505072511 | 22 | 205 | 4.8 | 17.7 | 0.00 | 0.00 | 0.00 | 42 | 1009.4 |
| 20260505072453 | 21 | 136 | 1.6 | 17.7 | 0.00 | 0.00 | 0.00 | 43 | 1009.6 |
| 20260505072220 | 21 | 209 | 8.0 | 17.7 | 0.00 | 0.00 | 0.00 | 42 | 1009.5 |
| 20260505072204 | 22 | 184 | 9.7 | 17.7 | 0.00 | 0.00 | 0.00 | 42 | 1009.5 |
| 20260505071935 | 22 | 185 | 3.2 | 16.1 | 0.00 | 0.00 | 0.00 | 41 | 1009.7 |
| 20260505071835 | 22 | 134 | 3.2 | 17.7 | 0.00 | 0.00 | 0.00 | 41 | 1009.7 |
| 20260505071808 | 22 | 212 | 12.9 | 17.7 | 0.00 | 0.00 | 0.00 | 42 | 1009.7 |
| 20260505071800 | 22 | 202 | 3.2 | 17.7 | 0.00 | 0.00 | 0.00 | 41 | 1009.8 |
| 20260505071745 | 22 | 206 | 4.8 | 17.7 | 0.00 | 0.00 | 0.00 | 42 | 1009.5 |
| 20260505071729 | 22 | 185 | 6.4 | 17.7 | 0.00 | 0.00 | 0.00 | 41 | 1009.4 |
| 20260505071707 | 22 | 192 | 8.0 | 17.7 | 0.00 | 0.00 | 0.00 | 42 | 1009.4 |
| 20260505071428 | 22 | 200 | 1.6 | 17.7 | 0.00 | 0.00 | 0.00 | 42 | 1009.6 |
| 20260505071412 | 22 | 198 | 9.7 | 17.7 | 0.00 | 0.00 | 0.00 | 42 | 1009.7 |
| 20260505070828 | 22 | 185 | 0.0 | 16.1 | 0.00 | 0.00 | 0.00 | 41 | 1009.7 |
| 20260505070729 | 22 | 53 | 3.2 | 16.1 | 0.00 | 0.00 | 0.00 | 42 | 1009.6 |
| 20260505070711 | 22 | 90 | 3.2 | 16.1 | 0.00 | 0.00 | 0.00 | 43 | 1009.7 |
| 20260505070656 | 22 | 89 | 3.2 | 16.1 | 0.00 | 0.00 | 0.00 | 42 | 1009.6 |
| 20260505070639 | 22 | 237 | 9.7 | 16.1 | 0.00 | 0.00 | 0.00 | 42 | 1009.6 |
| 20260505070333 | 22 | 194 | 6.4 | 14.5 | 0.00 | 0.00 | 0.00 | 42 | 1009.7 |
| 20260505070328 | 22 | 134 | 0.0 | 14.5 | 0.00 | 0.00 | 0.00 | 44 | 1010.0 |
| 20260505070316 | 21 | 181 | 0.0 | 16.1 | 0.00 | 0.00 | 0.00 | 43 | 1009.7 |
| 20260505070312 | 21 | 248 | 1.6 | 16.1 | 0.00 | 0.00 | 0.00 | 44 | 1009.8 |
| 20260505070306 | 21 | 168 | 0.0 | 6.4 | 0.00 | 0.00 | 0.00 | 42 | 1009.9 |
| 20260505070258 | 21 | 185 | 1.6 | 14.5 | 0.00 | 0.00 | 0.00 | 43 | 1009.5 |
| 20260505070242 | 21 | 174 | 0.0 | 14.5 | 0.00 | 0.00 | 0.00 | 43 | 1009.7 |
| 20260505070225 | 21 | 239 | 6.4 | 14.5 | 0.00 | 0.00 | 0.00 | 43 | 1009.9 |
| 20260505065959 | 22 | 194 | 6.4 | 14.5 | 0.00 | 0.00 | 0.00 | 42 | 1009.7 |
| 20260505065943 | 22 | 204 | 3.2 | 9.7 | 0.00 | 0.00 | 0.00 | 42 | 1009.7 |
| 20260505065928 | 22 | 198 | 3.2 | 14.5 | 0.00 | 0.00 | 0.00 | 43 | 1010.0 |
| 20260505065911 | 22 | 187 | 4.8 | 14.5 | 0.00 | 0.00 | 0.00 | 43 | 1009.8 |
| 20260505065855 | 22 | 172 | 1.6 | 14.5 | 0.00 | 0.00 | 0.00 | 42 | 1009.9 |
| 20260505065833 | 22 | 210 | 4.8 | 14.5 | 0.00 | 0.00 | 0.00 | 42 | 1009.8 |
| 20260505065816 | 22 | 210 | 1.6 | 14.5 | 0.00 | 0.00 | 0.00 | 43 | 1009.8 |
| 20260505065800 | 22 | 63 | 0.0 | 14.5 | 0.00 | 0.00 | 0.00 | 45 | 1009.7 |
| 20260505065743 | 21 | 224 | 1.6 | 14.5 | 0.00 | 0.00 | 0.00 | 43 | 1010.0 |
| 20260505065251 | 21 | 130 | 0.0 | 16.1 | 0.00 | 0.00 | 0.00 | 43 | 1009.7 |
| 20260505065235 | 21 | 199 | 9.7 | 16.1 | 0.00 | 0.00 | 0.00 | 43 | 1009.9 |
| 20260505065219 | 21 | 153 | 0.0 | 16.1 | 0.00 | 0.00 | 0.00 | 43 | 1009.8 |
| 20260505065203 | 21 | 57 | 1.6 | 16.1 | 0.00 | 0.00 | 0.00 | 42 | 1009.6 |
| 20260505064451 | 21 | 174 | 3.2 | 16.1 | 0.00 | 0.00 | 0.00 | 43 | 1009.6 |
| 20260505064436 | 21 | 195 | 3.2 | 16.1 | 0.00 | 0.00 | 0.00 | 43 | 1009.9 |
| 20260505064420 | 21 | 171 | 1.6 | 16.1 | 0.00 | 0.00 | 0.00 | 43 | 1009.9 |
| 20260505064405 | 21 | 214 | 12.9 | 16.1 | 0.00 | 0.00 | 0.00 | 44 | 1009.8 |
| 20260505064350 | 21 | 193 | 8.0 | 11.3 | 0.00 | 0.00 | 0.00 | 44 | 1010.0 |
| 20260505064123 | 21 | 88 | 3.2 | 11.3 | 0.00 | 0.00 | 0.00 | 44 | 1009.8 |
| 20260505063846 | 21 | 139 | 3.2 | 11.3 | 0.00 | 0.00 | 0.00 | 43 | 1009.9 |
| 20260505063830 | 21 | 187 | 6.4 | 11.3 | 0.00 | 0.00 | 0.00 | 43 | 1009.8 |
| 20260505063300 | 21 | 78 | 0.0 | 11.3 | 0.00 | 0.00 | 0.00 | 44 | 1009.8 |
| 20260505063157 | 21 | 164 | 0.0 | 11.3 | 0.00 | 0.00 | 0.00 | 43 | 1009.9 |
| 20260505063058 | 21 | 64 | 1.6 | 11.3 | 0.00 | 0.00 | 0.00 | 43 | 1009.8 |
| 20260505062958 | 21 | 177 | 0.0 | 11.3 | 0.00 | 0.00 | 0.00 | 44 | 1009.8 |
| 20260505062918 | 21 | 185 | 0.0 | 11.3 | 0.00 | 0.00 | 0.00 | 45 | 1009.8 |
| 20260505062857 | 21 | 183 | 0.0 | 11.3 | 0.00 | 0.00 | 0.00 | 44 | 1009.8 |
| 20260505062757 | 21 | 183 | 0.0 | 11.3 | 0.00 | 0.00 | 0.00 | 45 | 1009.9 |
| 20260505062725 | 20 | 194 | 0.0 | 11.3 | 0.00 | 0.00 | 0.00 | 45 | 1009.8 |
| 20260505062712 | 20 | 157 | 0.0 | 11.3 | 0.00 | 0.00 | 0.00 | 45 | 1009.7 |
| 20260505062437 | 20 | 223 | 6.4 | 11.3 | 0.00 | 0.00 | 0.00 | 46 | 1009.8 |
| 20260505062430 | 20 | 210 | 8.0 | 11.3 | 0.00 | 0.00 | 0.00 | 45 | 1009.8 |
| 20260505062411 | 20 | 173 | 4.8 | 11.3 | 0.00 | 0.00 | 0.00 | 44 | 1010.1 |
| 20260505062052 | 20 | 95 | 1.6 | 11.3 | 0.00 | 0.00 | 0.00 | 45 | 1009.9 |
| 20260505061951 | 20 | 160 | 1.6 | 11.3 | 0.00 | 0.00 | 0.00 | 44 | 1010.0 |
| 20260505061911 | 20 | 72 | 0.0 | 11.3 | 0.00 | 0.00 | 0.00 | 45 | 1009.8 |
| 20260505061851 | 20 | 176 | 3.2 | 11.3 | 0.00 | 0.00 | 0.00 | 44 | 1009.8 |
| 20260505061753 | 20 | 199 | 4.8 | 11.3 | 0.00 | 0.00 | 0.00 | 45 | 1010.2 |
| 20260505061728 | 20 | 91 | 0.0 | 14.5 | 0.00 | 0.00 | 0.00 | 48 | 1009.9 |
| 20260505061711 | 20 | 198 | 3.2 | 14.5 | 0.00 | 0.00 | 0.00 | 45 | 1010.1 |
| 20260505061407 | 20 | 177 | 1.6 | 14.5 | 0.00 | 0.00 | 0.00 | 45 | 1009.9 |
| 20260505061347 | 20 | 177 | 1.6 | 14.5 | 0.00 | 0.00 | 0.00 | 45 | 1009.9 |
| 20260505061322 | 20 | 112 | 1.6 | 14.5 | 0.00 | 0.00 | 0.00 | 45 | 1010.0 |
| 20260505061306 | 20 | 181 | 3.2 | 14.5 | 0.00 | 0.00 | 0.00 | 45 | 1010.1 |
| 20260505060946 | 20 | 212 | 3.2 | 14.5 | 0.00 | 0.00 | 0.00 | 45 | 1010.1 |
| 20260505060906 | 20 | 91 | 0.0 | 14.5 | 0.00 | 0.00 | 0.00 | 45 | 1010.1 |
| 20260505060846 | 20 | 157 | 1.6 | 14.5 | 0.00 | 0.00 | 0.00 | 46 | 1010.1 |
| 20260505060758 | 20 | 239 | 11.3 | 14.5 | 0.00 | 0.00 | 0.00 | 45 | 1010.2 |
| 20260505060743 | 20 | 168 | 0.0 | 14.5 | 0.00 | 0.00 | 0.00 | 47 | 1010.0 |
| 20260505060728 | 20 | 185 | 1.6 | 14.5 | 0.00 | 0.00 | 0.00 | 46 | 1010.0 |
| 20260505060713 | 20 | 194 | 3.2 | 14.5 | 0.00 | 0.00 | 0.00 | 46 | 1009.9 |
| 20260505060657 | 20 | 60 | 1.6 | 14.5 | 0.00 | 0.00 | 0.00 | 46 | 1009.9 |
| 20260505060429 | 20 | 157 | 0.0 | 14.5 | 0.00 | 0.00 | 0.00 | 49 | 1009.9 |
| 20260505055855 | 20 | 198 | 4.8 | 6.4 | 0.00 | 0.00 | 0.00 | 45 | 1009.9 |
| 20260505055848 | 20 | 203 | 1.6 | 6.4 | 0.00 | 0.00 | 0.00 | 46 | 1009.9 |
| 20260505055745 | 20 | 170 | 1.6 | 6.4 | 0.00 | 0.00 | 0.00 | 46 | 1010.1 |
| 20260505055657 | 19 | 175 | 0.0 | 6.4 | 0.00 | 0.00 | 0.00 | 47 | 1010.1 |
| 20260505055641 | 19 | 121 | 0.0 | 9.7 | 0.00 | 0.00 | 0.00 | 49 | 1009.9 |
| 20260505055627 | 19 | 195 | 0.0 | 9.7 | 0.00 | 0.00 | 0.00 | 47 | 1010.0 |
| 20260505055612 | 19 | 200 | 4.8 | 9.7 | 0.00 | 0.00 | 0.00 | 47 | 1010.0 |
| 20260505055602 | 19 | 182 | 0.0 | 9.7 | 0.00 | 0.00 | 0.00 | 46 | 1010.4 |
| 20260505055545 | 19 | 192 | 4.8 | 9.7 | 0.00 | 0.00 | 0.00 | 46 | 1010.1 |
| 20260505055529 | 19 | 178 | 3.2 | 9.7 | 0.00 | 0.00 | 0.00 | 47 | 1010.1 |
| 20260505055035 | 18 | 200 | 0.0 | 9.7 | 0.00 | 0.00 | 0.00 | 48 | 1010.1 |
| 20260505054752 | 18 | 93 | 0.0 | 9.7 | 0.00 | 0.00 | 0.00 | 49 | 1009.9 |
| 20260505054736 | 18 | 174 | 0.0 | 9.7 | 0.00 | 0.00 | 0.00 | 49 | 1010.1 |
| 20260505054418 | 19 | 140 | 1.6 | 6.4 | 0.00 | 0.00 | 0.00 | 48 | 1010.1 |
| 20260505054403 | 19 | 136 | 1.6 | 6.4 | 0.00 | 0.00 | 0.00 | 49 | 1010.1 |
| 20260505054317 | 19 | 169 | 1.6 | 6.4 | 0.00 | 0.00 | 0.00 | 48 | 1009.9 |
| 20260505054217 | 18 | 173 | 0.0 | 6.4 | 0.00 | 0.00 | 0.00 | 49 | 1010.0 |
| 20260505054151 | 18 | 57 | 3.2 | 4.8 | 0.00 | 0.00 | 0.00 | 50 | 1010.1 |
| 20260505054145 | 17 | 87 | 0.0 | 1.6 | 0.00 | 0.00 | 0.00 | 56 | 1009.9 |
| 20260505054139 | 16 | 141 | 0.0 | 3.2 | 0.00 | 0.00 | 0.00 | 57 | 1010.4 |
| 20260505054133 | 18 | 179 | 0.0 | 6.4 | 0.00 | 0.00 | 0.00 | 48 | 1010.1 |
| 20260505054116 | 18 | 160 | 0.0 | 4.8 | 0.00 | 0.00 | 0.00 | 51 | 1010.2 |
| 20260505054100 | 18 | 204 | 0.0 | 4.8 | 0.00 | 0.00 | 0.00 | 51 | 1010.2 |
| 20260505054048 | 18 | 155 | 0.0 | 4.8 | 0.00 | 0.00 | 0.00 | 51 | 1010.2 |
| 20260505054038 | 18 | 167 | 0.0 | 4.8 | 0.00 | 0.00 | 0.00 | 50 | 1010.1 |
| 20260505054022 | 18 | 171 | 1.6 | 4.8 | 0.00 | 0.00 | 0.00 | 50 | 1010.1 |
| 20260505053747 | 18 | 189 | 1.6 | 4.8 | 0.00 | 0.00 | 0.00 | 49 | 1009.9 |
| 20260505053731 | 18 | 172 | 1.6 | 4.8 | 0.00 | 0.00 | 0.00 | 50 | 1010.1 |
| 20260505053449 | 18 | 173 | 0.0 | 3.2 | 0.00 | 0.00 | 0.00 | 50 | 1010.5 |
| 20260505053434 | 18 | 182 | 0.0 | 3.2 | 0.00 | 0.00 | 0.00 | 50 | 1009.9 |
| 20260505053158 | 18 | 171 | 0.0 | 3.2 | 0.00 | 0.00 | 0.00 | 51 | 1010.1 |
| 20260505053131 | 17 | 143 | 0.0 | 1.6 | 0.00 | 0.00 | 0.00 | 53 | 1010.2 |
| 20260505053121 | 17 | 167 | 0.0 | 1.6 | 0.00 | 0.00 | 0.00 | 53 | 1010.5 |
| 20260505053105 | 17 | 161 | 0.0 | 1.6 | 0.00 | 0.00 | 0.00 | 54 | 1010.0 |
| 20260505052828 | 17 | 174 | 0.0 | 1.6 | 0.00 | 0.00 | 0.00 | 54 | 1010.1 |
| 20260505052811 | 17 | 129 | 0.0 | 1.6 | 0.00 | 0.00 | 0.00 | 56 | 1009.9 |
| 20260505052542 | 17 | 147 | 0.0 | 1.6 | 0.00 | 0.00 | 0.00 | 55 | 1010.2 |
| 20260505052525 | 17 | 157 | 0.0 | 1.6 | 0.00 | 0.00 | 0.00 | 55 | 1010.2 |
| 20260505052029 | 17 | 146 | 0.0 | 3.2 | 0.00 | 0.00 | 0.00 | 56 | 1010.1 |
| 20260505052017 | 17 | 156 | 0.0 | 3.2 | 0.00 | 0.00 | 0.00 | 56 | 1010.1 |
| 20260505052006 | 17 | 134 | 0.0 | 3.2 | 0.00 | 0.00 | 0.00 | 56 | 1010.4 |
| 20260505051951 | 17 | 156 | 0.0 | 3.2 | 0.00 | 0.00 | 0.00 | 56 | 1010.2 |
| 20260505051715 | 17 | 147 | 0.0 | 3.2 | 0.00 | 0.00 | 0.00 | 56 | 1010.2 |
| 20260505051659 | 17 | 134 | 0.0 | 3.2 | 0.00 | 0.00 | 0.00 | 55 | 1010.1 |
| 20260505051647 | 17 | 153 | 0.0 | 3.2 | 0.00 | 0.00 | 0.00 | 55 | 1010.1 |
| 20260505051414 | 17 | 134 | 0.0 | 3.2 | 0.00 | 0.00 | 0.00 | 55 | 1010.1 |
| 20260505051358 | 17 | 149 | 0.0 | 3.2 | 0.00 | 0.00 | 0.00 | 55 | 1010.1 |
| 20260505051343 | 17 | 137 | 0.0 | 1.6 | 0.00 | 0.00 | 0.00 | 55 | 1010.2 |
| 20260505051111 | 17 | 157 | 0.0 | 3.2 | 0.00 | 0.00 | 0.00 | 55 | 1010.4 |
| 20260505050839 | 16 | 145 | 0.0 | 3.2 | 0.00 | 0.00 | 0.00 | 55 | 1010.2 |
| 20260505050823 | 16 | 141 | 0.0 | 3.2 | 0.00 | 0.00 | 0.00 | 56 | 1010.5 |
| 20260505050548 | 16 | 161 | 0.0 | 3.2 | 0.00 | 0.00 | 0.00 | 57 | 1010.2 |
| 20260505050319 | 16 | 124 | 0.0 | 3.2 | 0.00 | 0.00 | 0.00 | 57 | 1010.4 |
| 20260505050302 | 16 | 176 | 0.0 | 3.2 | 0.00 | 0.00 | 0.00 | 56 | 1010.2 |
| 20260505041658 | 12 | 166 | 0.0 | 1.6 | 0.00 | 0.00 | 0.00 | 70 | 1010.2 |
| 20260505041559 | 12 | 160 | 0.0 | 1.6 | 0.00 | 0.00 | 0.00 | 70 | 1010.7 |
| 20260505041458 | 12 | 172 | 0.0 | 1.6 | 0.00 | 0.00 | 0.00 | 71 | 1010.7 |
| 20260505041358 | 11 | 179 | 0.0 | 1.6 | 0.00 | 0.00 | 0.00 | 71 | 1010.4 |
| 20260505041255 | 11 | 184 | 0.0 | 1.6 | 0.00 | 0.00 | 0.00 | 72 | 1010.5 |
| 20260505041248 | 11 | 182 | 0.0 | 1.6 | 0.00 | 0.00 | 0.00 | 72 | 1010.5 |
| 20260505041221 | 11 | 165 | 0.0 | 1.6 | 0.00 | 0.00 | 0.00 | 72 | 1010.5 |
| 20260505041205 | 11 | 141 | 1.6 | 1.6 | 0.00 | 0.00 | 0.00 | 74 | 1010.5 |
| 20260505040847 | 11 | 169 | 0.0 | 0.0 | 0.00 | 0.00 | 0.00 | 75 | 1010.4 |
| 20260505040753 | 11 | 173 | 0.0 | 1.6 | 0.00 | 0.00 | 0.00 | 75 | 1010.6 |
| 20260505040745 | 11 | 174 | 0.0 | 1.6 | 0.00 | 0.00 | 0.00 | 75 | 1010.6 |
| 20260505040646 | 11 | 173 | 0.0 | 1.6 | 0.00 | 0.00 | 0.00 | 75 | 1010.4 |
| 20260505040533 | 11 | 172 | 0.0 | 1.6 | 0.00 | 0.00 | 0.00 | 75 | 1010.5 |
| 20260505040434 | 11 | 172 | 0.0 | 1.6 | 0.00 | 0.00 | 0.00 | 75 | 1010.5 |
| 20260505040333 | 11 | 181 | 0.0 | 1.6 | 0.00 | 0.00 | 0.00 | 75 | 1010.7 |
| 20260505040319 | 11 | 179 | 0.0 | 1.6 | 0.00 | 0.00 | 0.00 | 75 | 1010.7 |
| 20260505040309 | 12 | 176 | 0.0 | 1.6 | 0.00 | 0.00 | 0.00 | 74 | 1010.4 |
| 20260505040252 | 12 | 181 | 0.0 | 1.6 | 0.00 | 0.00 | 0.00 | 72 | 1010.7 |
| 20260505035945 | 12 | 171 | 0.0 | 1.6 | 0.00 | 0.00 | 0.00 | 63 | 1010.2 |
| 20260505035940 | 12 | 177 | 0.0 | 1.6 | 0.00 | 0.00 | 0.00 | 70 | 1010.4 |
| 20260505035924 | 12 | 152 | 1.6 | 1.6 | 0.00 | 0.00 | 0.00 | 67 | 1010.6 |
| 20260505035910 | 12 | 183 | 0.0 | 0.0 | 0.00 | 0.00 | 0.00 | 68 | 1010.6 |
| 20260505035903 | 12 | 183 | 0.0 | 0.0 | 0.00 | 0.00 | 0.00 | 67 | 1010.6 |
| 20260505035847 | 12 | 169 | 0.0 | 0.0 | 0.00 | 0.00 | 0.00 | 66 | 1010.4 |
| 20260505035830 | 12 | 177 | 0.0 | 0.0 | 0.00 | 0.00 | 0.00 | 65 | 1010.4 |
| 20260505035555 | 12 | 175 | 0.0 | 0.0 | 0.00 | 0.00 | 0.00 | 63 | 1010.5 |
| 20260505035540 | 12 | 173 | 0.0 | 0.0 | 0.00 | 0.00 | 0.00 | 62 | 1010.5 |
| 20260505035310 | 12 | 167 | 0.0 | 1.6 | 0.00 | 0.00 | 0.00 | 62 | 1010.4 |
| 20260505035254 | 12 | 166 | 0.0 | 1.6 | 0.00 | 0.00 | 0.00 | 62 | 1010.5 |
| 20260505035239 | 12 | 173 | 0.0 | 1.6 | 0.00 | 0.00 | 0.00 | 64 | 1010.5 |
| 20260505035222 | 12 | 171 | 0.0 | 1.6 | 0.00 | 0.00 | 0.00 | 63 | 1010.2 |
| 20260505034954 | 12 | 169 | 0.0 | 1.6 | 0.00 | 0.00 | 0.00 | 63 | 1010.2 |
| 20260505034937 | 12 | 168 | 0.0 | 1.6 | 0.00 | 0.00 | 0.00 | 63 | 1010.6 |
| 20260505034920 | 12 | 166 | 0.0 | 1.6 | 0.00 | 0.00 | 0.00 | 63 | 1010.2 |
| 20260505034905 | 12 | 160 | 0.0 | 1.6 | 0.00 | 0.00 | 0.00 | 63 | 1010.5 |
| 20260505034848 | 12 | 157 | 0.0 | 1.6 | 0.00 | 0.00 | 0.00 | 63 | 1010.6 |
| 20260505034832 | 12 | 151 | 0.0 | 1.6 | 0.00 | 0.00 | 0.00 | 63 | 1010.6 |
| 20260505033817 | 12 | 166 | 0.0 | 3.2 | 0.00 | 0.00 | 0.00 | 64 | 1010.5 |
| 20260505033736 | 12 | 164 | 0.0 | 3.2 | 0.00 | 0.00 | 0.00 | 64 | 1010.5 |
| 20260505033715 | 12 | 164 | 0.0 | 3.2 | 0.00 | 0.00 | 0.00 | 64 | 1010.6 |
| 20260505033701 | 11 | 153 | 0.0 | 3.2 | 0.00 | 0.00 | 0.00 | 67 | 1010.6 |
| 20260505033652 | 11 | 165 | 0.0 | 3.2 | 0.00 | 0.00 | 0.00 | 65 | 1010.2 |
| 20260505033635 | 11 | 166 | 0.0 | 3.2 | 0.00 | 0.00 | 0.00 | 65 | 1010.2 |
| 20260505033618 | 11 | 159 | 0.0 | 3.2 | 0.00 | 0.00 | 0.00 | 66 | 1010.6 |
| 20260505033602 | 11 | 156 | 0.0 | 3.2 | 0.00 | 0.00 | 0.00 | 66 | 1010.6 |
| 20260505033332 | 11 | 156 | 0.0 | 3.2 | 0.00 | 0.00 | 0.00 | 67 | 1010.4 |
| 20260505033030 | 11 | 164 | 0.0 | 1.6 | 0.00 | 0.00 | 0.00 | 71 | 1010.6 |
| 20260505033023 | 11 | 156 | 0.0 | 3.2 | 0.00 | 0.00 | 0.00 | 69 | 1010.2 |
| 20260505033006 | 11 | 133 | 1.6 | 3.2 | 0.00 | 0.00 | 0.00 | 69 | 1010.6 |
| 20260505032951 | 11 | 165 | 0.0 | 1.6 | 0.00 | 0.00 | 0.00 | 71 | 1010.2 |
| 20260505032710 | 11 | 164 | 0.0 | 1.6 | 0.00 | 0.00 | 0.00 | 71 | 1010.6 |
| 20260505032611 | 11 | 157 | 0.0 | 1.6 | 0.00 | 0.00 | 0.00 | 70 | 1010.4 |
| 20260505032550 | 11 | 165 | 0.0 | 0.0 | 0.00 | 0.00 | 0.00 | 72 | 1010.5 |
| 20260505032533 | 11 | 166 | 0.0 | 0.0 | 0.00 | 0.00 | 0.00 | 70 | 1010.6 |
| 20260505032255 | 11 | 166 | 0.0 | 1.6 | 0.00 | 0.00 | 0.00 | 69 | 1010.5 |
| 20260505032245 | 11 | 165 | 0.0 | 1.6 | 0.00 | 0.00 | 0.00 | 69 | 1010.5 |
| 20260505032230 | 11 | 166 | 0.0 | 1.6 | 0.00 | 0.00 | 0.00 | 66 | 1010.5 |
| 20260505031910 | 11 | 162 | 0.0 | 1.6 | 0.00 | 0.00 | 0.00 | 67 | 1010.4 |
| 20260505031811 | 11 | 167 | 0.0 | 1.6 | 0.00 | 0.00 | 0.00 | 65 | 1010.6 |
| 20260505031730 | 11 | 167 | 0.0 | 1.6 | 0.00 | 0.00 | 0.00 | 65 | 1010.5 |
| 20260505031704 | 11 | 167 | 0.0 | 1.6 | 0.00 | 0.00 | 0.00 | 65 | 1010.5 |
| 20260505031559 | 11 | 169 | 0.0 | 1.6 | 0.00 | 0.00 | 0.00 | 67 | 1010.6 |
| 20260505031458 | 11 | 167 | 0.0 | 1.6 | 0.00 | 0.00 | 0.00 | 65 | 1010.5 |
| 20260505031358 | 11 | 170 | 0.0 | 1.6 | 0.00 | 0.00 | 0.00 | 67 | 1010.4 |
| 20260505031259 | 12 | 169 | 0.0 | 1.6 | 0.00 | 0.00 | 0.00 | 65 | 1010.6 |
| 20260505031230 | 12 | 172 | 0.0 | 1.6 | 0.00 | 0.00 | 0.00 | 66 | 1010.6 |
| 20260505031158 | 12 | 174 | 0.0 | 1.6 | 0.00 | 0.00 | 0.00 | 68 | 1010.6 |
| 20260505031058 | 12 | 174 | 0.0 | 1.6 | 0.00 | 0.00 | 0.00 | 64 | 1010.5 |
| 20260505030959 | 12 | 174 | 0.0 | 1.6 | 0.00 | 0.00 | 0.00 | 66 | 1010.6 |
| 20260505030858 | 11 | 173 | 0.0 | 1.6 | 0.00 | 0.00 | 0.00 | 65 | 1010.7 |
| 20260505030822 | 12 | 170 | 0.0 | 1.6 | 0.00 | 0.00 | 0.00 | 67 | 1010.5 |
| 20260505030815 | 11 | 167 | 0.0 | 1.6 | 0.00 | 0.00 | 0.00 | 65 | 1010.7 |
| 20260505030801 | 11 | 155 | 0.0 | 1.6 | 0.00 | 0.00 | 0.00 | 66 | 1010.4 |
| 20260505030751 | 11 | 169 | 0.0 | 1.6 | 0.00 | 0.00 | 0.00 | 69 | 1010.4 |
| 20260505030735 | 11 | 141 | 1.6 | 1.6 | 0.00 | 0.00 | 0.00 | 65 | 1010.6 |
| 20260505030719 | 12 | 174 | 0.0 | 1.6 | 0.00 | 0.00 | 0.00 | 68 | 1010.7 |
| 20260505030702 | 12 | 171 | 0.0 | 1.6 | 0.00 | 0.00 | 0.00 | 66 | 1010.8 |
| 20260505030152 | 12 | 169 | 0.0 | 1.6 | 0.00 | 0.00 | 0.00 | 65 | 1010.5 |
| 20260505030053 | 12 | 166 | 0.0 | 1.6 | 0.00 | 0.00 | 0.00 | 62 | 1010.7 |
| 20260505030016 | 13 | 174 | 0.0 | 1.6 | 0.00 | 0.00 | 0.00 | 61 | 1010.6 |
| 20260505030009 | 12 | 168 | 0.0 | 1.6 | 0.00 | 0.00 | 0.00 | 63 | 1010.6 |
| 20260505025953 | 12 | 158 | 0.0 | 1.6 | 0.00 | 0.00 | 0.00 | 60 | 1010.7 |
| 20260505025937 | 13 | 174 | 0.0 | 1.6 | 0.00 | 0.00 | 0.00 | 61 | 1010.7 |
| 20260505025647 | 13 | 174 | 0.0 | 1.6 | 0.00 | 0.00 | 0.00 | 61 | 1010.6 |
| 20260505025548 | 13 | 175 | 0.0 | 1.6 | 0.00 | 0.00 | 0.00 | 59 | 1010.7 |
| 20260505025447 | 13 | 174 | 0.0 | 1.6 | 0.00 | 0.00 | 0.00 | 58 | 1010.8 |
| 20260505025347 | 13 | 174 | 0.0 | 1.6 | 0.00 | 0.00 | 0.00 | 58 | 1010.7 |
| 20260505025310 | 13 | 174 | 0.0 | 1.6 | 0.00 | 0.00 | 0.00 | 58 | 1010.9 |
| 20260505025258 | 13 | 174 | 0.0 | 1.6 | 0.00 | 0.00 | 0.00 | 57 | 1010.7 |
| 20260505025246 | 13 | 174 | 0.0 | 1.6 | 0.00 | 0.00 | 0.00 | 58 | 1010.7 |
| 20260505025229 | 13 | 169 | 0.0 | 1.6 | 0.00 | 0.00 | 0.00 | 57 | 1010.7 |
| 20260505025214 | 13 | 170 | 0.0 | 1.6 | 0.00 | 0.00 | 0.00 | 57 | 1010.6 |
| 20260505025158 | 13 | 171 | 0.0 | 1.6 | 0.00 | 0.00 | 0.00 | 57 | 1010.7 |
| 20260505025143 | 13 | 176 | 0.0 | 0.0 | 0.00 | 0.00 | 0.00 | 58 | 1010.9 |
| 20260505025130 | 13 | 176 | 0.0 | 0.0 | 0.00 | 0.00 | 0.00 | 58 | 1010.8 |
| 20260505024900 | 13 | 175 | 0.0 | 0.0 | 0.00 | 0.00 | 0.00 | 57 | 1010.9 |
| 20260505024623 | 13 | 169 | 0.0 | 1.6 | 0.00 | 0.00 | 0.00 | 57 | 1010.8 |
| 20260505024350 | 13 | 171 | 0.0 | 1.6 | 0.00 | 0.00 | 0.00 | 57 | 1010.8 |
| 20260505024033 | 13 | 173 | 0.0 | 1.6 | 0.00 | 0.00 | 0.00 | 57 | 1010.9 |
| 20260505024003 | 13 | 171 | 0.0 | 1.6 | 0.00 | 0.00 | 0.00 | 57 | 1010.8 |
| 20260505023948 | 13 | 172 | 0.0 | 1.6 | 0.00 | 0.00 | 0.00 | 58 | 1010.9 |
| 20260505023712 | 13 | 170 | 0.0 | 1.6 | 0.00 | 0.00 | 0.00 | 57 | 1010.8 |
| 20260505023628 | 13 | 167 | 0.0 | 1.6 | 0.00 | 0.00 | 0.00 | 58 | 1010.9 |
| 20260505023527 | 13 | 165 | 0.0 | 1.6 | 0.00 | 0.00 | 0.00 | 57 | 1010.9 |
| 20260505023423 | 13 | 173 | 0.0 | 0.0 | 0.00 | 0.00 | 0.00 | 60 | 1011.1 |
| 20260505023322 | 13 | 172 | 0.0 | 0.0 | 0.00 | 0.00 | 0.00 | 57 | 1010.8 |
| 20260505023216 | 13 | 172 | 0.0 | 0.0 | 0.00 | 0.00 | 0.00 | 56 | 1010.8 |
| 20260505023201 | 13 | 172 | 0.0 | 0.0 | 0.00 | 0.00 | 0.00 | 56 | 1010.8 |
| 20260505023115 | 13 | 176 | 0.0 | 1.6 | 0.00 | 0.00 | 0.00 | 57 | 1010.9 |
| 20260505023016 | 13 | 176 | 0.0 | 1.6 | 0.00 | 0.00 | 0.00 | 57 | 1011.0 |
| 20260505022916 | 13 | 175 | 0.0 | 1.6 | 0.00 | 0.00 | 0.00 | 56 | 1011.0 |
| 20260505022818 | 13 | 176 | 0.0 | 1.6 | 0.00 | 0.00 | 0.00 | 57 | 1011.0 |
| 20260505022716 | 13 | 175 | 0.0 | 1.6 | 0.00 | 0.00 | 0.00 | 57 | 1011.0 |
| 20260505022700 | 13 | 175 | 0.0 | 1.6 | 0.00 | 0.00 | 0.00 | 57 | 1011.0 |
| 20260505022615 | 13 | 176 | 0.0 | 1.6 | 0.00 | 0.00 | 0.00 | 59 | 1010.9 |
| 20260505022538 | 13 | 176 | 0.0 | 1.6 | 0.00 | 0.00 | 0.00 | 56 | 1010.9 |
| 20260505022522 | 13 | 175 | 0.0 | 1.6 | 0.00 | 0.00 | 0.00 | 57 | 1010.8 |
| 20260505022234 | 13 | 162 | 0.0 | 1.6 | 0.00 | 0.00 | 0.00 | 56 | 1010.7 |
| 20260505022215 | 13 | 178 | 0.0 | 0.0 | 0.00 | 0.00 | 0.00 | 56 | 1010.9 |
| 20260505022159 | 14 | 178 | 0.0 | 0.0 | 0.00 | 0.00 | 0.00 | 56 | 1011.0 |
| 20260505022144 | 14 | 177 | 0.0 | 0.0 | 0.00 | 0.00 | 0.00 | 56 | 1011.1 |
| 20260505021658 | 14 | 177 | 0.0 | 0.0 | 0.00 | 0.00 | 0.00 | 55 | 1010.9 |
| 20260505021558 | 14 | 177 | 0.0 | 0.0 | 0.00 | 0.00 | 0.00 | 55 | 1011.0 |
| 20260505021458 | 14 | 176 | 0.0 | 0.0 | 0.00 | 0.00 | 0.00 | 55 | 1010.9 |
| 20260505021343 | 14 | 178 | 0.0 | 0.0 | 0.00 | 0.00 | 0.00 | 55 | 1010.9 |
| 20260505021240 | 14 | 176 | 0.0 | 0.0 | 0.00 | 0.00 | 0.00 | 55 | 1010.8 |
| 20260505021142 | 13 | 175 | 0.0 | 0.0 | 0.00 | 0.00 | 0.00 | 55 | 1010.9 |
| 20260505021116 | 13 | 178 | 0.0 | 0.0 | 0.00 | 0.00 | 0.00 | 55 | 1010.9 |
| 20260505021101 | 13 | 179 | 0.0 | 0.0 | 0.00 | 0.00 | 0.00 | 56 | 1010.9 |
| 20260505020740 | 14 | 180 | 0.0 | 0.0 | 0.00 | 0.00 | 0.00 | 56 | 1010.9 |
| 20260505020648 | 14 | 181 | 0.0 | 0.0 | 0.00 | 0.00 | 0.00 | 57 | 1011.1 |
| 20260505020641 | 14 | 181 | 0.0 | 0.0 | 0.00 | 0.00 | 0.00 | 55 | 1011.1 |
| 20260505020540 | 14 | 181 | 0.0 | 0.0 | 0.00 | 0.00 | 0.00 | 55 | 1011.2 |
| 20260505020511 | 14 | 181 | 0.0 | 0.0 | 0.00 | 0.00 | 0.00 | 57 | 1010.9 |
| 20260505020455 | 13 | 181 | 0.0 | 0.0 | 0.00 | 0.00 | 0.00 | 55 | 1010.9 |
| 20260505020143 | 13 | 181 | 0.0 | 1.6 | 0.00 | 0.00 | 0.00 | 55 | 1011.1 |
| 20260505020135 | 13 | 180 | 0.0 | 1.6 | 0.00 | 0.00 | 0.00 | 55 | 1011.1 |
| 20260505020035 | 13 | 179 | 0.0 | 1.6 | 0.00 | 0.00 | 0.00 | 56 | 1011.1 |
| 20260505015935 | 13 | 179 | 0.0 | 1.6 | 0.00 | 0.00 | 0.00 | 56 | 1011.0 |
| 20260505015836 | 13 | 180 | 0.0 | 1.6 | 0.00 | 0.00 | 0.00 | 61 | 1010.9 |
| 20260505015817 | 13 | 178 | 0.0 | 1.6 | 0.00 | 0.00 | 0.00 | 57 | 1011.3 |
| 20260505015759 | 13 | 182 | 0.0 | 1.6 | 0.00 | 0.00 | 0.00 | 59 | 1011.3 |
| 20260505015754 | 13 | 181 | 0.0 | 1.6 | 0.00 | 0.00 | 0.00 | 59 | 1011.2 |
| 20260505015429 | 13 | 180 | 0.0 | 1.6 | 0.00 | 0.00 | 0.00 | 57 | 1011.2 |
| 20260505015327 | 13 | 175 | 0.0 | 1.6 | 0.00 | 0.00 | 0.00 | 57 | 1011.3 |
| 20260505015229 | 14 | 185 | 0.0 | 0.0 | 0.00 | 0.00 | 0.00 | 60 | 1011.2 |
| 20260505015212 | 14 | 182 | 0.0 | 0.0 | 0.00 | 0.00 | 0.00 | 57 | 1011.2 |
| 20260505015202 | 14 | 182 | 0.0 | 0.0 | 0.00 | 0.00 | 0.00 | 61 | 1010.9 |
| 20260505015147 | 14 | 188 | 0.0 | 0.0 | 0.00 | 0.00 | 0.00 | 56 | 1011.2 |
| 20260505014906 | 14 | 173 | 0.0 | 0.0 | 0.00 | 0.00 | 0.00 | 58 | 1011.3 |
| 20260505014850 | 14 | 173 | 0.0 | 0.0 | 0.00 | 0.00 | 0.00 | 55 | 1011.1 |
| 20260505014834 | 14 | 173 | 0.0 | 0.0 | 0.00 | 0.00 | 0.00 | 54 | 1011.1 |
| 20260505014523 | 14 | 173 | 0.0 | 0.0 | 0.00 | 0.00 | 0.00 | 54 | 1011.1 |
| 20260505014459 | 14 | 173 | 0.0 | 0.0 | 0.00 | 0.00 | 0.00 | 54 | 1011.4 |
| 20260505014444 | 14 | 173 | 0.0 | 0.0 | 0.00 | 0.00 | 0.00 | 57 | 1011.1 |
| 20260505014206 | 14 | 171 | 0.0 | 0.0 | 0.00 | 0.00 | 0.00 | 54 | 1011.5 |
| 20260505014158 | 14 | 171 | 0.0 | 0.0 | 0.00 | 0.00 | 0.00 | 54 | 1011.4 |
| 20260505014142 | 14 | 174 | 0.0 | 0.0 | 0.00 | 0.00 | 0.00 | 54 | 1011.1 |
| 20260505013821 | 14 | 174 | 0.0 | 0.0 | 0.00 | 0.00 | 0.00 | 54 | 1011.1 |
| 20260505013720 | 14 | 173 | 0.0 | 0.0 | 0.00 | 0.00 | 0.00 | 54 | 1011.3 |
| 20260505013629 | 14 | 173 | 0.0 | 0.0 | 0.00 | 0.00 | 0.00 | 55 | 1011.1 |
| 20260505013621 | 14 | 173 | 0.0 | 0.0 | 0.00 | 0.00 | 0.00 | 54 | 1011.1 |
| 20260505013516 | 14 | 173 | 0.0 | 0.0 | 0.00 | 0.00 | 0.00 | 54 | 1011.3 |
| 20260505013423 | 14 | 173 | 0.0 | 0.0 | 0.00 | 0.00 | 0.00 | 54 | 1011.1 |
| 20260505013417 | 14 | 173 | 0.0 | 0.0 | 0.00 | 0.00 | 0.00 | 54 | 1011.3 |
| 20260505013402 | 14 | 173 | 0.0 | 0.0 | 0.00 | 0.00 | 0.00 | 54 | 1011.1 |
| 20260505013346 | 14 | 173 | 0.0 | 0.0 | 0.00 | 0.00 | 0.00 | 54 | 1011.1 |
| 20260505013118 | 14 | 173 | 0.0 | 0.0 | 0.00 | 0.00 | 0.00 | 54 | 1011.1 |
| 20260505013017 | 14 | 173 | 0.0 | 0.0 | 0.00 | 0.00 | 0.00 | 54 | 1011.2 |
| 20260505012915 | 14 | 172 | 0.0 | 0.0 | 0.00 | 0.00 | 0.00 | 54 | 1011.3 |
| 20260505012816 | 14 | 172 | 0.0 | 0.0 | 0.00 | 0.00 | 0.00 | 54 | 1011.2 |
| 20260505012657 | 14 | 172 | 0.0 | 0.0 | 0.00 | 0.00 | 0.00 | 54 | 1011.3 |
| 20260505012614 | 14 | 171 | 0.0 | 0.0 | 0.00 | 0.00 | 0.00 | 54 | 1011.2 |
| 20260505012546 | 14 | 172 | 0.0 | 0.0 | 0.00 | 0.00 | 0.00 | 54 | 1011.2 |
| 20260505012446 | 14 | 171 | 0.0 | 0.0 | 0.00 | 0.00 | 0.00 | 54 | 1011.2 |
| 20260505012346 | 15 | 171 | 0.0 | 0.0 | 0.00 | 0.00 | 0.00 | 54 | 1011.1 |
| 20260505012312 | 15 | 173 | 0.0 | 0.0 | 0.00 | 0.00 | 0.00 | 54 | 1011.1 |
| 20260505012243 | 15 | 171 | 0.0 | 0.0 | 0.00 | 0.00 | 0.00 | 54 | 1011.3 |
| 20260505011927 | 15 | 171 | 0.0 | 0.0 | 0.00 | 0.00 | 0.00 | 54 | 1011.2 |
| 20260505011829 | 15 | 174 | 0.0 | 0.0 | 0.00 | 0.00 | 0.00 | 54 | 1011.3 |
| 20260505011716 | 15 | 174 | 0.0 | 0.0 | 0.00 | 0.00 | 0.00 | 54 | 1011.1 |
| 20260505011616 | 15 | 178 | 0.0 | 0.0 | 0.00 | 0.00 | 0.00 | 54 | 1011.2 |
| 20260505011601 | 15 | 178 | 0.0 | 0.0 | 0.00 | 0.00 | 0.00 | 54 | 1011.2 |
| 20260505011532 | 15 | 172 | 0.0 | 0.0 | 0.00 | 0.00 | 0.00 | 54 | 1011.2 |
| 20260505011525 | 15 | 178 | 0.0 | 0.0 | 0.00 | 0.00 | 0.00 | 54 | 1011.2 |
| 20260505011509 | 15 | 174 | 0.0 | 0.0 | 0.00 | 0.00 | 0.00 | 54 | 1011.2 |
| 20260505011452 | 15 | 174 | 0.0 | 0.0 | 0.00 | 0.00 | 0.00 | 54 | 1011.2 |
| 20260505011437 | 15 | 174 | 0.0 | 0.0 | 0.00 | 0.00 | 0.00 | 54 | 1011.2 |
| 20260505011421 | 15 | 172 | 0.0 | 0.0 | 0.00 | 0.00 | 0.00 | 54 | 1011.2 |
| 20260505011153 | 15 | 176 | 0.0 | 0.0 | 0.00 | 0.00 | 0.00 | 54 | 1011.2 |
| 20260505010923 | 15 | 179 | 0.0 | 0.0 | 0.00 | 0.00 | 0.00 | 54 | 1011.2 |
| 20260505010604 | 15 | 178 | 0.0 | 0.0 | 0.00 | 0.00 | 0.00 | 53 | 1011.1 |
| 20260505010505 | 15 | 176 | 0.0 | 0.0 | 0.00 | 0.00 | 0.00 | 54 | 1011.3 |
| 20260505010403 | 15 | 175 | 0.0 | 0.0 | 0.00 | 0.00 | 0.00 | 54 | 1011.1 |
| 20260505010303 | 15 | 178 | 0.0 | 0.0 | 0.00 | 0.00 | 0.00 | 54 | 1011.3 |
| 20260505010159 | 15 | 176 | 0.0 | 0.0 | 0.00 | 0.00 | 0.00 | 54 | 1011.4 |
| 20260505010113 | 15 | 176 | 0.0 | 0.0 | 0.00 | 0.00 | 0.00 | 54 | 1011.4 |
| 20260505005959 | 15 | 176 | 0.0 | 0.0 | 0.00 | 0.00 | 0.00 | 54 | 1011.3 |
| 20260505005859 | 15 | 174 | 0.0 | 0.0 | 0.00 | 0.00 | 0.00 | 54 | 1011.3 |
| 20260505005758 | 15 | 172 | 0.0 | 0.0 | 0.00 | 0.00 | 0.00 | 54 | 1011.1 |
| 20260505005700 | 15 | 172 | 0.0 | 0.0 | 0.00 | 0.00 | 0.00 | 54 | 1011.3 |
| 20260505005641 | 15 | 172 | 0.0 | 0.0 | 0.00 | 0.00 | 0.00 | 54 | 1011.3 |
| 20260505005625 | 15 | 171 | 0.0 | 0.0 | 0.00 | 0.00 | 0.00 | 54 | 1011.2 |
| 20260505005610 | 15 | 170 | 0.0 | 0.0 | 0.00 | 0.00 | 0.00 | 54 | 1011.2 |
| 20260505005553 | 15 | 171 | 0.0 | 0.0 | 0.00 | 0.00 | 0.00 | 54 | 1011.3 |
| 20260505005539 | 15 | 173 | 0.0 | 0.0 | 0.00 | 0.00 | 0.00 | 54 | 1011.2 |
| 20260505005523 | 15 | 173 | 0.0 | 0.0 | 0.00 | 0.00 | 0.00 | 54 | 1011.3 |
| 20260505004734 | 15 | 172 | 0.0 | 0.0 | 0.00 | 0.00 | 0.00 | 54 | 1011.4 |